Time,TemperatureF,DewpointF,PressureIn,WindDirection,WindDirectionDegrees,WindSpeedMPH,WindSpeedGustMPH,Humidity,HourlyPrecipIn,Conditions,Clouds,dailyrainin,SoftwareType,DateUTC
2014-01-30 00:04:00,33.6,12.9,30.18,WSW,238,9.0,9.0,42,0.00,,,0.00,Wunderground v.1.15,2014-01-30 06:04:00,
2014-01-30 00:05:00,33.5,12.8,30.18,South,191,4.0,9.0,42,0.00,,,0.00,Wunderground v.1.15,2014-01-30 06:05:00,
2014-01-30 00:06:00,33.5,12.8,30.18,SSW,209,6.0,9.0,42,0.00,,,0.00,Wunderground v.1.15,2014-01-30 06:06:00,
2014-01-30 00:08:00,33.5,13.4,30.18,South,187,9.0,9.0,43,0.00,,,0.00,Wunderground v.1.15,2014-01-30 06:08:00,
2014-01-30 00:09:00,33.4,13.3,30.18,SSE,156,8.0,9.0,43,0.00,,,0.00,Wunderground v.1.15,2014-01-30 06:09:00,
2014-01-30 00:10:00,33.4,13.3,30.18,SSW,210,8.0,8.0,43,0.00,,,0.00,Wunderground v.1.15,2014-01-30 06:10:00,
2014-01-30 00:12:00,33.4,13.3,30.19,SSE,165,5.0,8.0,43,0.00,,,0.00,Wunderground v.1.15,2014-01-30 06:12:00,
2014-01-30 00:13:00,33.4,13.3,30.18,SW,234,4.0,8.0,43,0.00,,,0.00,Wunderground v.1.15,2014-01-30 06:13:00,
2014-01-30 00:15:00,33.3,13.2,30.19,South,187,3.0,8.0,43,0.00,,,0.00,Wunderground v.1.15,2014-01-30 06:15:00,
2014-01-30 00:16:00,33.3,13.2,30.19,WSW,241,3.0,8.0,43,0.00,,,0.00,Wunderground v.1.15,2014-01-30 06:16:00,
2014-01-30 00:18:00,33.2,13.1,30.18,SSE,162,5.0,8.0,43,0.00,,,0.00,Wunderground v.1.15,2014-01-30 06:18:00,
2014-01-30 00:19:00,33.1,13.0,30.19,South,170,5.0,8.0,43,0.00,,,0.00,Wunderground v.1.15,2014-01-30 06:19:00,
2014-01-30 00:21:00,33.0,12.9,30.18,WSW,247,6.0,6.0,43,0.00,,,0.00,Wunderground v.1.15,2014-01-30 06:21:00,
2014-01-30 00:22:00,33.0,12.9,30.18,WSW,250,7.0,7.0,43,0.00,,,0.00,Wunderground v.1.15,2014-01-30 06:22:00,
2014-01-30 00:27:00,32.8,13.2,30.18,WSW,237,4.0,7.0,44,0.00,,,0.00,Wunderground v.1.15,2014-01-30 06:27:00,
2014-01-30 00:28:00,32.7,13.2,30.18,West,262,7.0,7.0,44,0.00,,,0.00,Wunderground v.1.15,2014-01-30 06:28:00,
2014-01-30 00:30:00,32.7,13.2,30.18,WSW,241,4.0,5.0,44,0.00,,,0.00,Wunderground v.1.15,2014-01-30 06:30:00,
2014-01-30 00:32:00,32.6,13.1,30.17,South,186,10.0,10.0,44,0.00,,,0.00,Wunderground v.1.15,2014-01-30 06:32:00,
2014-01-30 00:33:00,32.6,13.1,30.17,South,190,5.0,10.0,44,0.00,,,0.00,Wunderground v.1.15,2014-01-30 06:33:00,
2014-01-30 00:34:00,32.5,13.0,30.17,SSE,165,4.0,10.0,44,0.00,,,0.00,Wunderground v.1.15,2014-01-30 06:34:00,
2014-01-30 00:37:00,32.5,13.0,30.17,WSW,237,3.0,10.0,44,0.00,,,0.00,Wunderground v.1.15,2014-01-30 06:37:00,
2014-01-30 00:38:00,32.4,13.4,30.17,WNW,282,1.0,10.0,45,0.00,,,0.00,Wunderground v.1.15,2014-01-30 06:38:00,
2014-01-30 00:40:00,32.4,13.4,30.17,WSW,237,4.0,4.0,45,0.00,,,0.00,Wunderground v.1.15,2014-01-30 06:40:00,
2014-01-30 00:43:00,32.2,13.2,30.17,West,268,3.0,5.0,45,0.00,,,0.00,Wunderground v.1.15,2014-01-30 06:43:00,
2014-01-30 00:45:00,32.1,13.1,30.17,WSW,241,6.0,6.0,45,0.00,,,0.00,Wunderground v.1.15,2014-01-30 06:45:00,
2014-01-30 00:47:00,32.0,13.0,30.17,WSW,237,3.0,7.0,45,0.00,,,0.00,Wunderground v.1.15,2014-01-30 06:47:00,
2014-01-30 00:48:00,32.0,13.0,30.17,SW,217,3.0,7.0,45,0.00,,,0.00,Wunderground v.1.15,2014-01-30 06:48:00,
2014-01-30 00:50:00,31.9,13.4,30.17,SW,227,5.0,5.0,46,0.00,,,0.00,Wunderground v.1.15,2014-01-30 06:50:00,
2014-01-30 00:53:00,31.8,13.3,30.17,South,188,5.0,8.0,46,0.00,,,0.00,Wunderground v.1.15,2014-01-30 06:53:00,
2014-01-30 00:56:00,31.8,13.3,30.17,SSW,195,3.0,8.0,46,0.00,,,0.00,Wunderground v.1.15,2014-01-30 06:56:00,
2014-01-30 00:57:00,31.8,13.3,30.16,SW,227,6.0,8.0,46,0.00,,,0.00,Wunderground v.1.15,2014-01-30 06:57:00,
2014-01-30 00:58:00,31.7,13.3,30.16,South,185,6.0,8.0,46,0.00,,,0.00,Wunderground v.1.15,2014-01-30 06:58:00,
2014-01-30 00:59:00,31.7,13.3,30.16,South,175,10.0,10.0,46,0.00,,,0.00,Wunderground v.1.15,2014-01-30 06:59:00,
2014-01-30 01:02:00,31.7,13.3,30.16,SE,143,5.0,6.0,46,0.00,,,0.00,Wunderground v.1.15,2014-01-30 07:02:00,
2014-01-30 01:03:00,31.7,13.3,30.16,SE,143,5.0,6.0,46,0.00,,,0.00,Wunderground v.1.15,2014-01-30 07:03:00,
2014-01-30 01:04:00,31.6,13.2,30.16,SW,230,5.0,6.0,46,0.00,,,0.00,Wunderground v.1.15,2014-01-30 07:04:00,
2014-01-30 01:08:00,31.6,13.2,30.15,WSW,256,8.0,9.0,46,0.00,,,0.00,Wunderground v.1.15,2014-01-30 07:08:00,
2014-01-30 01:09:00,31.6,13.2,30.15,SSE,168,5.0,9.0,46,0.00,,,0.00,Wunderground v.1.15,2014-01-30 07:09:00,
2014-01-30 01:13:00,31.5,13.6,30.15,West,261,5.0,9.0,47,0.00,,,0.00,Wunderground v.1.15,2014-01-30 07:13:00,
2014-01-30 01:14:00,31.4,13.5,30.15,South,178,5.0,9.0,47,0.00,,,0.00,Wunderground v.1.15,2014-01-30 07:14:00,
2014-01-30 01:17:00,31.3,13.4,30.14,SE,135,7.0,9.0,47,0.00,,,0.00,Wunderground v.1.15,2014-01-30 07:17:00,
2014-01-30 01:18:00,31.3,13.4,30.14,SSE,152,5.0,9.0,47,0.00,,,0.00,Wunderground v.1.15,2014-01-30 07:18:00,
2014-01-30 01:19:00,31.3,13.4,30.14,SW,223,11.0,11.0,47,0.00,,,0.00,Wunderground v.1.15,2014-01-30 07:19:00,
2014-01-30 01:20:00,31.3,13.4,30.14,SSW,204,7.0,11.0,47,0.00,,,0.00,Wunderground v.1.15,2014-01-30 07:20:00,
2014-01-30 01:22:00,31.3,13.4,30.14,South,183,8.0,8.0,47,0.00,,,0.00,Wunderground v.1.15,2014-01-30 07:22:00,
2014-01-30 01:24:00,31.2,13.3,30.14,South,178,8.0,8.0,47,0.00,,,0.00,Wunderground v.1.15,2014-01-30 07:24:00,
2014-01-30 01:25:00,31.2,13.3,30.13,SW,226,2.0,8.0,47,0.00,,,0.00,Wunderground v.1.15,2014-01-30 07:25:00,
2014-01-30 01:26:00,31.2,13.3,30.14,SSE,152,9.0,9.0,47,0.00,,,0.00,Wunderground v.1.15,2014-01-30 07:26:00,
2014-01-30 01:27:00,31.2,13.3,30.14,SSE,165,7.0,9.0,47,0.00,,,0.00,Wunderground v.1.15,2014-01-30 07:27:00,
2014-01-30 01:28:00,31.1,13.2,30.13,South,187,5.0,9.0,47,0.00,,,0.00,Wunderground v.1.15,2014-01-30 07:28:00,
2014-01-30 01:31:00,31.0,13.6,30.13,SW,232,4.0,6.0,48,0.00,,,0.00,Wunderground v.1.15,2014-01-30 07:31:00,
2014-01-30 01:32:00,30.9,13.5,30.13,SE,139,7.0,7.0,48,0.00,,,0.00,Wunderground v.1.15,2014-01-30 07:32:00,
2014-01-30 01:33:00,30.9,13.5,30.13,South,185,9.0,9.0,48,0.00,,,0.00,Wunderground v.1.15,2014-01-30 07:33:00,
2014-01-30 01:34:00,30.8,13.4,30.13,SW,230,5.0,9.0,48,0.00,,,0.00,Wunderground v.1.15,2014-01-30 07:34:00,
2014-01-30 01:37:00,30.8,13.4,30.13,South,189,10.0,10.0,48,0.00,,,0.00,Wunderground v.1.15,2014-01-30 07:37:00,
2014-01-30 01:38:00,30.8,13.4,30.13,SSE,165,14.0,14.0,48,0.00,,,0.00,Wunderground v.1.15,2014-01-30 07:38:00,
2014-01-30 01:39:00,30.8,13.4,30.13,WSW,250,6.0,14.0,48,0.00,,,0.00,Wunderground v.1.15,2014-01-30 07:39:00,
2014-01-30 01:41:00,30.8,13.4,30.14,SW,217,3.0,7.0,48,0.00,,,0.00,Wunderground v.1.15,2014-01-30 07:41:00,
2014-01-30 01:43:00,30.8,13.4,30.14,South,177,3.0,7.0,48,0.00,,,0.00,Wunderground v.1.15,2014-01-30 07:43:00,
2014-01-30 01:44:00,30.8,13.4,30.14,South,169,8.0,8.0,48,0.00,,,0.00,Wunderground v.1.15,2014-01-30 07:44:00,
2014-01-30 01:46:00,30.8,13.4,30.14,South,184,7.0,8.0,48,0.00,,,0.00,Wunderground v.1.15,2014-01-30 07:46:00,
2014-01-30 01:47:00,30.8,13.4,30.14,WSW,241,5.0,8.0,48,0.00,,,0.00,Wunderground v.1.15,2014-01-30 07:47:00,
2014-01-30 01:49:00,30.8,13.4,30.14,SW,217,5.0,8.0,48,0.00,,,0.00,Wunderground v.1.15,2014-01-30 07:49:00,
2014-01-30 01:51:00,30.8,13.4,30.14,South,178,8.0,8.0,48,0.00,,,0.00,Wunderground v.1.15,2014-01-30 07:51:00,
2014-01-30 01:54:00,30.8,13.4,30.14,SSE,160,12.0,12.0,48,0.00,,,0.00,Wunderground v.1.15,2014-01-30 07:54:00,
2014-01-30 01:56:00,30.8,13.4,30.13,WSW,244,4.0,12.0,48,0.00,,,0.00,Wunderground v.1.15,2014-01-30 07:56:00,
2014-01-30 01:57:00,30.8,13.4,30.13,SW,214,7.0,12.0,48,0.00,,,0.00,Wunderground v.1.15,2014-01-30 07:57:00,
2014-01-30 01:58:00,30.7,13.8,30.13,SSE,163,5.0,12.0,49,0.00,,,0.00,Wunderground v.1.15,2014-01-30 07:58:00,
2014-01-30 01:59:00,30.7,13.8,30.13,SSE,165,5.0,12.0,49,0.00,,,0.00,Wunderground v.1.15,2014-01-30 07:59:00,
2014-01-30 02:01:00,30.7,13.8,30.13,SSW,202,4.0,6.0,49,0.00,,,0.00,Wunderground v.1.15,2014-01-30 08:01:00,
2014-01-30 02:02:00,30.6,13.7,30.13,SSW,206,9.0,9.0,49,0.00,,,0.00,Wunderground v.1.15,2014-01-30 08:02:00,
2014-01-30 02:03:00,30.7,13.8,30.13,SW,230,9.0,9.0,49,0.00,,,0.00,Wunderground v.1.15,2014-01-30 08:03:00,
2014-01-30 02:04:00,30.6,13.7,30.13,West,272,7.0,9.0,49,0.00,,,0.00,Wunderground v.1.15,2014-01-30 08:04:00,
2014-01-30 02:06:00,30.6,13.7,30.12,South,181,6.0,13.0,49,0.00,,,0.00,Wunderground v.1.15,2014-01-30 08:06:00,
2014-01-30 02:07:00,30.6,13.7,30.12,SSE,162,10.0,13.0,49,0.00,,,0.00,Wunderground v.1.15,2014-01-30 08:07:00,
2014-01-30 02:08:00,30.6,13.7,30.12,WNW,287,3.0,13.0,49,0.00,,,0.00,Wunderground v.1.15,2014-01-30 08:08:00,
2014-01-30 02:09:00,30.6,13.7,30.12,South,185,11.0,13.0,49,0.00,,,0.00,Wunderground v.1.15,2014-01-30 08:09:00,
2014-01-30 02:11:00,30.6,13.7,30.12,SW,230,4.0,11.0,49,0.00,,,0.00,Wunderground v.1.15,2014-01-30 08:11:00,
2014-01-30 02:12:00,30.5,13.6,30.12,SSW,197,13.0,13.0,49,0.00,,,0.00,Wunderground v.1.15,2014-01-30 08:12:00,
2014-01-30 02:13:00,30.6,13.7,30.12,SW,232,6.0,13.0,49,0.00,,,0.00,Wunderground v.1.15,2014-01-30 08:13:00,
2014-01-30 02:14:00,30.6,13.7,30.11,SW,228,4.0,13.0,49,0.00,,,0.00,Wunderground v.1.15,2014-01-30 08:14:00,
2014-01-30 02:16:00,30.5,13.6,30.11,SSE,167,5.0,13.0,49,0.00,,,0.00,Wunderground v.1.15,2014-01-30 08:16:00,
2014-01-30 02:17:00,30.5,13.6,30.11,South,172,7.0,13.0,49,0.00,,,0.00,Wunderground v.1.15,2014-01-30 08:17:00,
2014-01-30 02:18:00,30.5,13.6,30.11,WSW,241,4.0,13.0,49,0.00,,,0.00,Wunderground v.1.15,2014-01-30 08:18:00,
2014-01-30 02:19:00,30.5,13.6,30.11,SSE,160,7.0,13.0,49,0.00,,,0.00,Wunderground v.1.15,2014-01-30 08:19:00,
2014-01-30 02:20:00,30.5,14.0,30.11,SSW,213,7.0,13.0,50,0.00,,,0.00,Wunderground v.1.15,2014-01-30 08:20:00,
2014-01-30 02:22:00,30.5,14.0,30.12,SSW,206,6.0,12.0,50,0.00,,,0.00,Wunderground v.1.15,2014-01-30 08:22:00,
2014-01-30 02:23:00,30.5,14.0,30.12,South,188,12.0,12.0,50,0.00,,,0.00,Wunderground v.1.15,2014-01-30 08:23:00,
2014-01-30 02:24:00,30.5,14.0,30.12,WSW,247,4.0,12.0,50,0.00,,,0.00,Wunderground v.1.15,2014-01-30 08:24:00,
2014-01-30 02:25:00,30.5,14.0,30.11,SW,230,2.0,14.0,50,0.00,,,0.00,Wunderground v.1.15,2014-01-30 08:25:00,
2014-01-30 02:26:00,30.4,14.0,30.11,South,186,7.0,14.0,50,0.00,,,0.00,Wunderground v.1.15,2014-01-30 08:26:00,
2014-01-30 02:27:00,30.4,14.0,30.11,South,176,6.0,14.0,50,0.00,,,0.00,Wunderground v.1.15,2014-01-30 08:27:00,
2014-01-30 02:29:00,30.4,14.0,30.11,SW,221,5.0,14.0,50,0.00,,,0.00,Wunderground v.1.15,2014-01-30 08:29:00,
2014-01-30 02:30:00,30.4,14.0,30.11,West,262,4.0,14.0,50,0.00,,,0.00,Wunderground v.1.15,2014-01-30 08:30:00,
2014-01-30 02:32:00,30.3,13.9,30.11,South,181,10.0,10.0,50,0.00,,,0.00,Wunderground v.1.15,2014-01-30 08:32:00,
2014-01-30 02:34:00,30.3,13.9,30.11,SSE,156,4.0,15.0,50,0.00,,,0.00,Wunderground v.1.15,2014-01-30 08:34:00,
2014-01-30 02:35:00,30.3,13.9,30.11,SE,145,2.0,15.0,50,0.00,,,0.00,Wunderground v.1.15,2014-01-30 08:35:00,
2014-01-30 02:36:00,30.4,14.0,30.11,South,188,10.0,15.0,50,0.00,,,0.00,Wunderground v.1.15,2014-01-30 08:36:00,
2014-01-30 02:37:00,30.3,13.9,30.11,SW,226,6.0,15.0,50,0.00,,,0.00,Wunderground v.1.15,2014-01-30 08:37:00,
2014-01-30 02:39:00,30.3,14.3,30.11,SSW,192,10.0,18.0,51,0.00,,,0.00,Wunderground v.1.15,2014-01-30 08:39:00,
2014-01-30 02:40:00,30.3,14.3,30.11,South,176,7.0,18.0,51,0.00,,,0.00,Wunderground v.1.15,2014-01-30 08:40:00,
2014-01-30 02:41:00,30.2,14.2,30.11,SSW,203,10.0,13.0,51,0.00,,,0.00,Wunderground v.1.15,2014-01-30 08:41:00,
2014-01-30 02:42:00,30.2,14.2,30.11,SSW,203,6.0,13.0,51,0.00,,,0.00,Wunderground v.1.15,2014-01-30 08:42:00,
2014-01-30 02:44:00,30.2,14.2,30.10,SW,235,6.0,13.0,51,0.00,,,0.00,Wunderground v.1.15,2014-01-30 08:44:00,
2014-01-30 02:45:00,30.2,14.2,30.10,West,266,8.0,13.0,51,0.00,,,0.00,Wunderground v.1.15,2014-01-30 08:45:00,
2014-01-30 02:46:00,30.1,14.1,30.10,WSW,244,4.0,16.0,51,0.00,,,0.00,Wunderground v.1.15,2014-01-30 08:46:00,
2014-01-30 02:47:00,30.1,14.1,30.10,South,184,12.0,16.0,51,0.00,,,0.00,Wunderground v.1.15,2014-01-30 08:47:00,
2014-01-30 02:48:00,30.1,14.1,30.10,SSE,161,6.0,16.0,51,0.00,,,0.00,Wunderground v.1.15,2014-01-30 08:48:00,
2014-01-30 02:49:00,30.2,14.2,30.10,South,179,5.0,16.0,51,0.00,,,0.00,Wunderground v.1.15,2014-01-30 08:49:00,
2014-01-30 02:50:00,30.2,14.2,30.10,SSW,204,4.0,16.0,51,0.00,,,0.00,Wunderground v.1.15,2014-01-30 08:50:00,
2014-01-30 02:51:00,30.2,14.2,30.10,SW,230,10.0,12.0,51,0.00,,,0.00,Wunderground v.1.15,2014-01-30 08:51:00,
2014-01-30 02:52:00,30.2,14.2,30.09,SW,230,4.0,12.0,51,0.00,,,0.00,Wunderground v.1.15,2014-01-30 08:52:00,
2014-01-30 02:53:00,30.1,14.1,30.09,South,190,10.0,12.0,51,0.00,,,0.00,Wunderground v.1.15,2014-01-30 08:53:00,
2014-01-30 02:54:00,30.1,14.6,30.09,WSW,237,8.0,12.0,52,0.00,,,0.00,Wunderground v.1.15,2014-01-30 08:54:00,
2014-01-30 02:55:00,30.1,14.6,30.09,SE,124,4.0,12.0,52,0.00,,,0.00,Wunderground v.1.15,2014-01-30 08:55:00,
2014-01-30 02:56:00,30.1,14.6,30.09,West,281,4.0,12.0,52,0.00,,,0.00,Wunderground v.1.15,2014-01-30 08:56:00,
2014-01-30 02:59:00,30.1,14.6,30.09,SW,216,5.0,12.0,52,0.00,,,0.00,Wunderground v.1.15,2014-01-30 08:59:00,
2014-01-30 03:00:00,30.1,14.6,30.09,SSW,204,2.0,7.0,52,0.00,,,0.00,Wunderground v.1.15,2014-01-30 09:00:00,
2014-01-30 03:02:00,30.1,14.6,30.09,WSW,254,5.0,9.0,52,0.00,,,0.00,Wunderground v.1.15,2014-01-30 09:02:00,
2014-01-30 03:04:00,30.1,14.6,30.09,WSW,254,7.0,12.0,52,0.00,,,0.00,Wunderground v.1.15,2014-01-30 09:04:00,
2014-01-30 03:05:00,30.1,14.6,30.09,SSW,203,10.0,12.0,52,0.00,,,0.00,Wunderground v.1.15,2014-01-30 09:05:00,
2014-01-30 03:07:00,30.1,14.6,30.09,WNW,282,6.0,12.0,52,0.00,,,0.00,Wunderground v.1.15,2014-01-30 09:07:00,
2014-01-30 03:10:00,30.0,14.5,30.09,SSW,204,5.0,6.0,52,0.00,,,0.00,Wunderground v.1.15,2014-01-30 09:10:00,
2014-01-30 03:12:00,30.0,14.9,30.09,South,179,10.0,12.0,53,0.00,,,0.00,Wunderground v.1.15,2014-01-30 09:12:00,
2014-01-30 03:13:00,30.0,14.9,30.09,West,275,2.0,12.0,53,0.00,,,0.00,Wunderground v.1.15,2014-01-30 09:13:00,
2014-01-30 03:15:00,30.0,14.9,30.09,SSW,200,4.0,12.0,53,0.00,,,0.00,Wunderground v.1.15,2014-01-30 09:15:00,
2014-01-30 03:16:00,29.9,14.8,30.09,South,175,6.0,12.0,53,0.00,,,0.00,Wunderground v.1.15,2014-01-30 09:16:00,
2014-01-30 03:17:00,29.9,14.8,30.09,South,172,5.0,12.0,53,0.00,,,0.00,Wunderground v.1.15,2014-01-30 09:17:00,
2014-01-30 03:18:00,29.9,14.8,30.09,SSE,166,4.0,12.0,53,0.00,,,0.00,Wunderground v.1.15,2014-01-30 09:18:00,
2014-01-30 03:20:00,29.9,14.8,30.09,SW,227,4.0,8.0,53,0.00,,,0.00,Wunderground v.1.15,2014-01-30 09:20:00,
2014-01-30 03:21:00,29.8,14.7,30.09,SSE,166,7.0,12.0,53,0.00,,,0.00,Wunderground v.1.15,2014-01-30 09:21:00,
2014-01-30 03:22:00,29.8,14.7,30.09,West,273,5.0,12.0,53,0.00,,,0.00,Wunderground v.1.15,2014-01-30 09:22:00,
2014-01-30 03:23:00,29.8,14.7,30.09,SSE,159,7.0,12.0,53,0.00,,,0.00,Wunderground v.1.15,2014-01-30 09:23:00,
2014-01-30 03:25:00,29.8,15.2,30.09,SSW,199,7.0,12.0,54,0.00,,,0.00,Wunderground v.1.15,2014-01-30 09:25:00,
2014-01-30 03:27:00,29.8,15.2,30.09,WSW,241,5.0,12.0,54,0.00,,,0.00,Wunderground v.1.15,2014-01-30 09:27:00,
2014-01-30 03:28:00,29.8,15.2,30.09,South,189,13.0,13.0,54,0.00,,,0.00,Wunderground v.1.15,2014-01-30 09:28:00,
2014-01-30 03:29:00,29.8,15.2,30.09,WSW,245,2.0,14.0,54,0.00,,,0.00,Wunderground v.1.15,2014-01-30 09:29:00,
2014-01-30 03:30:00,29.8,15.2,30.09,SW,224,6.0,14.0,54,0.00,,,0.00,Wunderground v.1.15,2014-01-30 09:30:00,
2014-01-30 03:31:00,29.7,15.1,30.09,South,171,6.0,14.0,54,0.00,,,0.00,Wunderground v.1.15,2014-01-30 09:31:00,
2014-01-30 03:33:00,29.8,15.2,30.09,SSW,209,2.0,14.0,54,0.00,,,0.00,Wunderground v.1.15,2014-01-30 09:33:00,
2014-01-30 03:34:00,29.7,15.1,30.09,SW,216,3.0,14.0,54,0.00,,,0.00,Wunderground v.1.15,2014-01-30 09:34:00,
2014-01-30 03:36:00,29.7,15.1,30.09,South,175,9.0,14.0,54,0.00,,,0.00,Wunderground v.1.15,2014-01-30 09:36:00,
2014-01-30 03:37:00,29.7,15.1,30.09,South,174,5.0,14.0,54,0.00,,,0.00,Wunderground v.1.15,2014-01-30 09:37:00,
2014-01-30 03:38:00,29.6,15.4,30.09,WSW,244,3.0,14.0,55,0.00,,,0.00,Wunderground v.1.15,2014-01-30 09:38:00,
2014-01-30 03:39:00,29.6,15.4,30.09,WSW,240,9.0,14.0,55,0.00,,,0.00,Wunderground v.1.15,2014-01-30 09:39:00,
2014-01-30 03:41:00,29.6,15.4,30.09,South,178,7.0,9.0,55,0.00,,,0.00,Wunderground v.1.15,2014-01-30 09:41:00,
2014-01-30 03:42:00,29.6,15.4,30.09,South,183,4.0,9.0,55,0.00,,,0.00,Wunderground v.1.15,2014-01-30 09:42:00,
2014-01-30 03:43:00,29.7,15.5,30.09,SW,218,11.0,11.0,55,0.00,,,0.00,Wunderground v.1.15,2014-01-30 09:43:00,
2014-01-30 03:44:00,29.7,15.5,30.09,South,172,6.0,11.0,55,0.00,,,0.00,Wunderground v.1.15,2014-01-30 09:44:00,
2014-01-30 03:46:00,29.7,15.5,30.08,NW,304,5.0,12.0,55,0.00,,,0.00,Wunderground v.1.15,2014-01-30 09:46:00,
2014-01-30 03:47:00,29.6,15.4,30.08,SSW,192,6.0,12.0,55,0.00,,,0.00,Wunderground v.1.15,2014-01-30 09:47:00,
2014-01-30 03:48:00,29.6,15.4,30.08,WSW,244,4.0,12.0,55,0.00,,,0.00,Wunderground v.1.15,2014-01-30 09:48:00,
2014-01-30 03:49:00,29.6,15.4,30.08,SSW,209,5.0,12.0,55,0.00,,,0.00,Wunderground v.1.15,2014-01-30 09:49:00,
2014-01-30 03:51:00,29.6,15.8,30.08,SSW,211,9.0,14.0,56,0.00,,,0.00,Wunderground v.1.15,2014-01-30 09:51:00,
2014-01-30 03:52:00,29.6,15.8,30.08,SSW,195,10.0,14.0,56,0.00,,,0.00,Wunderground v.1.15,2014-01-30 09:52:00,
2014-01-30 03:53:00,29.6,15.8,30.07,SSE,164,7.0,14.0,56,0.00,,,0.00,Wunderground v.1.15,2014-01-30 09:53:00,
2014-01-30 03:54:00,29.6,15.8,30.08,SSE,165,4.0,14.0,56,0.00,,,0.00,Wunderground v.1.15,2014-01-30 09:54:00,
2014-01-30 03:56:00,29.6,15.8,30.07,SSW,203,5.0,14.0,56,0.00,,,0.00,Wunderground v.1.15,2014-01-30 09:56:00,
2014-01-30 03:57:00,29.6,15.8,30.08,South,188,4.0,14.0,56,0.00,,,0.00,Wunderground v.1.15,2014-01-30 09:57:00,
2014-01-30 03:58:00,29.6,15.8,30.08,SW,214,8.0,14.0,56,0.00,,,0.00,Wunderground v.1.15,2014-01-30 09:58:00,
2014-01-30 03:59:00,29.6,15.8,30.08,South,179,11.0,14.0,56,0.00,,,0.00,Wunderground v.1.15,2014-01-30 09:59:00,
2014-01-30 04:02:00,29.6,15.8,30.08,SW,231,7.0,13.0,56,0.00,,,0.00,Wunderground v.1.15,2014-01-30 10:02:00,
2014-01-30 04:03:00,29.6,15.8,30.08,South,179,7.0,13.0,56,0.00,,,0.00,Wunderground v.1.15,2014-01-30 10:03:00,
2014-01-30 04:04:00,29.6,15.8,30.08,South,180,9.0,13.0,56,0.00,,,0.00,Wunderground v.1.15,2014-01-30 10:04:00,
2014-01-30 04:05:00,29.6,15.8,30.08,South,173,5.0,13.0,56,0.00,,,0.00,Wunderground v.1.15,2014-01-30 10:05:00,
2014-01-30 04:08:00,29.6,16.2,30.07,ESE,112,4.0,13.0,57,0.00,,,0.00,Wunderground v.1.15,2014-01-30 10:08:00,
2014-01-30 04:09:00,29.6,16.2,30.07,SSW,200,8.0,18.0,57,0.00,,,0.00,Wunderground v.1.15,2014-01-30 10:09:00,
2014-01-30 04:10:00,29.6,16.2,30.07,SSE,165,7.0,13.0,57,0.00,,,0.00,Wunderground v.1.15,2014-01-30 10:10:00,
2014-01-30 04:13:00,29.6,16.2,30.07,SSW,196,2.0,13.0,57,0.00,,,0.00,Wunderground v.1.15,2014-01-30 10:13:00,
2014-01-30 04:14:00,29.6,16.2,30.07,South,182,4.0,14.0,57,0.00,,,0.00,Wunderground v.1.15,2014-01-30 10:14:00,
2014-01-30 04:15:00,29.6,16.2,30.06,South,181,10.0,19.0,57,0.00,,,0.00,Wunderground v.1.15,2014-01-30 10:15:00,
2014-01-30 04:18:00,29.7,16.3,30.06,SSE,158,4.0,19.0,57,0.00,,,0.00,Wunderground v.1.15,2014-01-30 10:18:00,
2014-01-30 04:19:00,29.7,16.3,30.06,South,183,8.0,19.0,57,0.00,,,0.00,Wunderground v.1.15,2014-01-30 10:19:00,
2014-01-30 04:20:00,29.7,16.3,30.06,SW,231,5.0,13.0,57,0.00,,,0.00,Wunderground v.1.15,2014-01-30 10:20:00,
2014-01-30 04:23:00,29.6,16.6,30.06,South,172,4.0,14.0,58,0.00,,,0.00,Wunderground v.1.15,2014-01-30 10:23:00,
2014-01-30 04:24:00,29.6,16.6,30.06,West,280,5.0,14.0,58,0.00,,,0.00,Wunderground v.1.15,2014-01-30 10:24:00,
2014-01-30 04:25:00,29.6,16.6,30.06,SSE,162,6.0,14.0,58,0.00,,,0.00,Wunderground v.1.15,2014-01-30 10:25:00,
2014-01-30 04:26:00,29.6,16.6,30.06,South,172,6.0,14.0,58,0.00,,,0.00,Wunderground v.1.15,2014-01-30 10:26:00,
2014-01-30 04:28:00,29.6,16.6,30.06,SW,234,7.0,14.0,58,0.00,,,0.00,Wunderground v.1.15,2014-01-30 10:28:00,
2014-01-30 04:29:00,29.6,16.6,30.06,South,184,4.0,14.0,58,0.00,,,0.00,Wunderground v.1.15,2014-01-30 10:29:00,
2014-01-30 04:30:00,29.6,16.6,30.06,SW,235,7.0,7.0,58,0.00,,,0.00,Wunderground v.1.15,2014-01-30 10:30:00,
2014-01-30 04:31:00,29.6,16.6,30.06,SSE,163,5.0,15.0,58,0.00,,,0.00,Wunderground v.1.15,2014-01-30 10:31:00,
2014-01-30 04:34:00,29.6,17.0,30.06,SW,230,2.0,15.0,59,0.00,,,0.00,Wunderground v.1.15,2014-01-30 10:34:00,
2014-01-30 04:35:00,29.7,17.1,30.06,South,177,9.0,15.0,59,0.00,,,0.00,Wunderground v.1.15,2014-01-30 10:35:00,
2014-01-30 04:36:00,29.7,17.1,30.06,WNW,292,5.0,15.0,59,0.00,,,0.00,Wunderground v.1.15,2014-01-30 10:36:00,
2014-01-30 04:39:00,29.7,17.1,30.05,SSW,202,4.0,15.0,59,0.00,,,0.00,Wunderground v.1.15,2014-01-30 10:39:00,
2014-01-30 04:40:00,29.7,17.1,30.05,SW,224,5.0,7.0,59,0.00,,,0.00,Wunderground v.1.15,2014-01-30 10:40:00,
2014-01-30 04:41:00,29.7,17.1,30.05,South,180,6.0,13.0,59,0.00,,,0.00,Wunderground v.1.15,2014-01-30 10:41:00,
2014-01-30 04:44:00,29.6,17.0,30.05,South,185,7.0,13.0,59,0.00,,,0.00,Wunderground v.1.15,2014-01-30 10:44:00,
2014-01-30 04:45:00,29.6,17.0,30.05,South,173,5.0,13.0,59,0.00,,,0.00,Wunderground v.1.15,2014-01-30 10:45:00,
2014-01-30 04:46:00,29.6,17.0,30.05,WSW,241,12.0,14.0,59,0.00,,,0.00,Wunderground v.1.15,2014-01-30 10:46:00,
2014-01-30 04:49:00,29.7,17.5,30.05,South,191,5.0,18.0,60,0.00,,,0.00,Wunderground v.1.15,2014-01-30 10:49:00,
2014-01-30 04:50:00,29.7,17.1,30.05,SSW,209,15.0,18.0,59,0.00,,,0.00,Wunderground v.1.15,2014-01-30 10:50:00,
2014-01-30 04:51:00,29.7,17.1,30.04,SW,220,11.0,18.0,59,0.00,,,0.00,Wunderground v.1.15,2014-01-30 10:51:00,
2014-01-30 04:52:00,29.7,17.5,30.04,WSW,241,7.0,18.0,60,0.00,,,0.00,Wunderground v.1.15,2014-01-30 10:52:00,
2014-01-30 04:54:00,29.6,17.4,30.04,SSE,161,7.0,20.0,60,0.00,,,0.00,Wunderground v.1.15,2014-01-30 10:54:00,
2014-01-30 04:55:00,29.6,17.4,30.04,SE,143,5.0,20.0,60,0.00,,,0.00,Wunderground v.1.15,2014-01-30 10:55:00,
2014-01-30 04:56:00,29.6,17.4,30.05,West,271,4.0,20.0,60,0.00,,,0.00,Wunderground v.1.15,2014-01-30 10:56:00,
2014-01-30 04:57:00,29.6,17.4,30.04,SW,221,10.0,20.0,60,0.00,,,0.00,Wunderground v.1.15,2014-01-30 10:57:00,
2014-01-30 05:00:00,29.6,17.4,30.04,WSW,254,5.0,8.0,60,0.00,,,0.00,Wunderground v.1.15,2014-01-30 11:00:00,
2014-01-30 05:02:00,29.6,17.4,30.04,WSW,250,11.0,12.0,60,0.00,,,0.00,Wunderground v.1.15,2014-01-30 11:02:00,
2014-01-30 05:03:00,29.6,17.4,30.04,South,182,7.0,12.0,60,0.00,,,0.00,Wunderground v.1.15,2014-01-30 11:03:00,
2014-01-30 05:05:00,29.5,17.3,30.04,SSW,206,6.0,12.0,60,0.00,,,0.00,Wunderground v.1.15,2014-01-30 11:05:00,
2014-01-30 05:07:00,29.4,17.2,30.04,SSE,158,5.0,12.0,60,0.00,,,0.00,Wunderground v.1.15,2014-01-30 11:07:00,
2014-01-30 05:09:00,29.4,17.6,30.04,South,186,9.0,12.0,61,0.00,,,0.00,Wunderground v.1.15,2014-01-30 11:09:00,
2014-01-30 05:10:00,29.4,17.6,30.04,South,175,4.0,6.0,61,0.00,,,0.00,Wunderground v.1.15,2014-01-30 11:10:00,
2014-01-30 05:12:00,29.3,17.5,30.04,SSW,211,4.0,18.0,61,0.00,,,0.00,Wunderground v.1.15,2014-01-30 11:12:00,
2014-01-30 05:13:00,29.3,17.5,30.04,SSW,199,3.0,18.0,61,0.00,,,0.00,Wunderground v.1.15,2014-01-30 11:13:00,
2014-01-30 05:15:00,29.3,17.5,30.04,WSW,237,2.0,18.0,61,0.00,,,0.00,Wunderground v.1.15,2014-01-30 11:15:00,
2014-01-30 05:17:00,29.2,17.8,30.04,SSW,192,8.0,18.0,62,0.00,,,0.00,Wunderground v.1.15,2014-01-30 11:17:00,
2014-01-30 05:18:00,29.2,17.8,30.04,South,175,4.0,18.0,62,0.00,,,0.00,Wunderground v.1.15,2014-01-30 11:18:00,
2014-01-30 05:20:00,29.2,17.8,30.04,SW,217,7.0,10.0,62,0.00,,,0.00,Wunderground v.1.15,2014-01-30 11:20:00,
2014-01-30 05:22:00,29.2,17.8,30.03,WSW,244,11.0,13.0,62,0.00,,,0.00,Wunderground v.1.15,2014-01-30 11:22:00,
2014-01-30 05:23:00,29.2,17.8,30.03,SW,217,4.0,13.0,62,0.00,,,0.00,Wunderground v.1.15,2014-01-30 11:23:00,
2014-01-30 05:25:00,29.2,17.8,30.03,WSW,254,2.0,13.0,62,0.00,,,0.00,Wunderground v.1.15,2014-01-30 11:25:00,
2014-01-30 05:28:00,29.2,17.8,30.03,SW,231,9.0,13.0,62,0.00,,,0.00,Wunderground v.1.15,2014-01-30 11:28:00,
2014-01-30 05:30:00,29.2,17.8,30.03,South,183,4.0,9.0,62,0.00,,,0.00,Wunderground v.1.15,2014-01-30 11:30:00,
2014-01-30 05:31:00,29.2,17.8,30.03,SE,127,1.0,14.0,62,0.00,,,0.00,Wunderground v.1.15,2014-01-30 11:31:00,
2014-01-30 05:33:00,29.1,17.7,30.03,SSW,199,15.0,15.0,62,0.00,,,0.00,Wunderground v.1.15,2014-01-30 11:33:00,
2014-01-30 05:34:00,29.1,17.7,30.03,SW,214,8.0,15.0,62,0.00,,,0.00,Wunderground v.1.15,2014-01-30 11:34:00,
2014-01-30 05:36:00,29.0,17.6,30.03,SSW,192,13.0,15.0,62,0.00,,,0.00,Wunderground v.1.15,2014-01-30 11:36:00,
2014-01-30 05:38:00,29.0,17.6,30.03,SSE,166,7.0,15.0,62,0.00,,,0.00,Wunderground v.1.15,2014-01-30 11:38:00,
2014-01-30 05:39:00,29.0,17.6,30.02,SSE,156,5.0,15.0,62,0.00,,,0.00,Wunderground v.1.15,2014-01-30 11:39:00,
2014-01-30 05:41:00,29.0,18.0,30.02,SSE,148,7.0,12.0,63,0.00,,,0.00,Wunderground v.1.15,2014-01-30 11:41:00,
2014-01-30 05:43:00,29.0,18.0,30.02,SSW,206,12.0,17.0,63,0.00,,,0.00,Wunderground v.1.15,2014-01-30 11:43:00,
2014-01-30 05:44:00,29.0,18.0,30.02,SW,230,5.0,17.0,63,0.00,,,0.00,Wunderground v.1.15,2014-01-30 11:44:00,
2014-01-30 05:45:00,29.0,18.0,30.02,WSW,256,5.0,17.0,63,0.00,,,0.00,Wunderground v.1.15,2014-01-30 11:45:00,
2014-01-30 05:46:00,29.0,18.0,30.02,SW,216,8.0,17.0,63,0.00,,,0.00,Wunderground v.1.15,2014-01-30 11:46:00,
2014-01-30 05:47:00,28.9,17.9,30.02,West,261,3.0,17.0,63,0.00,,,0.00,Wunderground v.1.15,2014-01-30 11:47:00,
2014-01-30 05:49:00,28.9,17.9,30.03,SE,139,5.0,17.0,63,0.00,,,0.00,Wunderground v.1.15,2014-01-30 11:49:00,
2014-01-30 05:50:00,28.9,17.9,30.03,WNW,299,4.0,10.0,63,0.00,,,0.00,Wunderground v.1.15,2014-01-30 11:50:00,
2014-01-30 05:51:00,28.8,17.8,30.03,SSE,165,7.0,10.0,63,0.00,,,0.00,Wunderground v.1.15,2014-01-30 11:51:00,
2014-01-30 05:52:00,28.8,17.8,30.03,SSW,210,7.0,14.0,63,0.00,,,0.00,Wunderground v.1.15,2014-01-30 11:52:00,
2014-01-30 05:54:00,28.8,17.8,30.03,WSW,240,3.0,14.0,63,0.00,,,0.00,Wunderground v.1.15,2014-01-30 11:54:00,
2014-01-30 05:55:00,28.8,17.8,30.03,WSW,252,3.0,14.0,63,0.00,,,0.00,Wunderground v.1.15,2014-01-30 11:55:00,
2014-01-30 05:56:00,28.8,18.1,30.03,South,186,5.0,14.0,64,0.00,,,0.00,Wunderground v.1.15,2014-01-30 11:56:00,
2014-01-30 05:57:00,28.8,18.1,30.03,SW,223,3.0,14.0,64,0.00,,,0.00,Wunderground v.1.15,2014-01-30 11:57:00,
2014-01-30 05:58:00,28.7,18.1,30.03,SW,216,6.0,14.0,64,0.00,,,0.00,Wunderground v.1.15,2014-01-30 11:58:00,
2014-01-30 06:01:00,28.6,18.0,30.03,SSW,210,3.0,5.0,64,0.00,,,0.00,Wunderground v.1.15,2014-01-30 12:01:00,
2014-01-30 06:02:00,28.6,18.0,30.03,South,178,6.0,9.0,64,0.00,,,0.00,Wunderground v.1.15,2014-01-30 12:02:00,
2014-01-30 06:03:00,28.6,18.0,30.03,SSW,192,4.0,9.0,64,0.00,,,0.00,Wunderground v.1.15,2014-01-30 12:03:00,
2014-01-30 06:06:00,28.6,18.0,30.02,SSW,195,6.0,14.0,64,0.00,,,0.00,Wunderground v.1.15,2014-01-30 12:06:00,
2014-01-30 06:07:00,28.6,18.0,30.02,ESE,108,5.0,14.0,64,0.00,,,0.00,Wunderground v.1.15,2014-01-30 12:07:00,
2014-01-30 06:08:00,28.6,18.0,30.02,West,271,8.0,14.0,64,0.00,,,0.00,Wunderground v.1.15,2014-01-30 12:08:00,
2014-01-30 06:11:00,28.6,18.0,30.02,SW,234,3.0,9.0,64,0.00,,,0.00,Wunderground v.1.15,2014-01-30 12:11:00,
2014-01-30 06:12:00,28.5,18.2,30.02,SSW,207,7.0,9.0,65,0.00,,,0.00,Wunderground v.1.15,2014-01-30 12:12:00,
2014-01-30 06:13:00,28.5,18.2,30.02,South,175,6.0,9.0,65,0.00,,,0.00,Wunderground v.1.15,2014-01-30 12:13:00,
2014-01-30 06:14:00,28.5,18.2,30.02,South,171,7.0,11.0,65,0.00,,,0.00,Wunderground v.1.15,2014-01-30 12:14:00,
2014-01-30 06:16:00,28.5,18.2,30.02,SSW,202,6.0,11.0,65,0.00,,,0.00,Wunderground v.1.15,2014-01-30 12:16:00,
2014-01-30 06:17:00,28.5,18.2,30.02,South,185,6.0,11.0,65,0.00,,,0.00,Wunderground v.1.15,2014-01-30 12:17:00,
2014-01-30 06:18:00,28.5,18.2,30.02,SSW,210,15.0,15.0,65,0.00,,,0.00,Wunderground v.1.15,2014-01-30 12:18:00,
2014-01-30 06:19:00,28.4,18.1,30.02,South,177,9.0,15.0,65,0.00,,,0.00,Wunderground v.1.15,2014-01-30 12:19:00,
2014-01-30 06:21:00,28.4,18.1,30.02,SW,232,5.0,11.0,65,0.00,,,0.00,Wunderground v.1.15,2014-01-30 12:21:00,
2014-01-30 06:22:00,28.4,18.1,30.02,WSW,244,3.0,11.0,65,0.00,,,0.00,Wunderground v.1.15,2014-01-30 12:22:00,
2014-01-30 06:23:00,28.4,18.1,30.02,South,177,13.0,13.0,65,0.00,,,0.00,Wunderground v.1.15,2014-01-30 12:23:00,
2014-01-30 06:25:00,28.4,18.1,30.02,SSE,168,3.0,13.0,65,0.00,,,0.00,Wunderground v.1.15,2014-01-30 12:25:00,
2014-01-30 06:26:00,28.4,18.1,30.02,West,273,2.0,13.0,65,0.00,,,0.00,Wunderground v.1.15,2014-01-30 12:26:00,
2014-01-30 06:28:00,28.4,18.1,30.03,SSW,199,5.0,13.0,65,0.00,,,0.00,Wunderground v.1.15,2014-01-30 12:28:00,
2014-01-30 06:30:00,28.4,18.5,30.02,SW,226,6.0,7.0,66,0.00,,,0.00,Wunderground v.1.15,2014-01-30 12:30:00,
2014-01-30 06:32:00,28.4,18.5,30.03,SSE,156,8.0,15.0,66,0.00,,,0.00,Wunderground v.1.15,2014-01-30 12:32:00,
2014-01-30 06:33:00,28.4,18.5,30.03,SW,224,6.0,15.0,66,0.00,,,0.00,Wunderground v.1.15,2014-01-30 12:33:00,
2014-01-30 06:34:00,28.4,18.5,30.03,South,190,8.0,15.0,66,0.00,,,0.00,Wunderground v.1.15,2014-01-30 12:34:00,
2014-01-30 06:36:00,28.4,18.5,30.03,WSW,247,7.0,15.0,66,0.00,,,0.00,Wunderground v.1.15,2014-01-30 12:36:00,
2014-01-30 06:37:00,28.5,18.6,30.03,WSW,247,3.0,15.0,66,0.00,,,0.00,Wunderground v.1.15,2014-01-30 12:37:00,
2014-01-30 06:38:00,28.5,18.6,30.03,South,181,9.0,15.0,66,0.00,,,0.00,Wunderground v.1.15,2014-01-30 12:38:00,
2014-01-30 06:39:00,28.5,18.6,30.03,WSW,254,6.0,15.0,66,0.00,,,0.00,Wunderground v.1.15,2014-01-30 12:39:00,
2014-01-30 06:41:00,28.5,18.6,30.03,WSW,244,2.0,7.0,66,0.00,,,0.00,Wunderground v.1.15,2014-01-30 12:41:00,
2014-01-30 06:42:00,28.5,18.6,30.03,WSW,241,3.0,7.0,66,0.00,,,0.00,Wunderground v.1.15,2014-01-30 12:42:00,
2014-01-30 06:43:00,28.5,18.6,30.04,SSW,192,4.0,8.0,66,0.00,,,0.00,Wunderground v.1.15,2014-01-30 12:43:00,
2014-01-30 06:44:00,28.5,18.6,30.04,SSW,213,8.0,11.0,66,0.00,,,0.00,Wunderground v.1.15,2014-01-30 12:44:00,
2014-01-30 06:47:00,28.5,18.6,30.04,SW,221,5.0,11.0,66,0.00,,,0.00,Wunderground v.1.15,2014-01-30 12:47:00,
2014-01-30 06:49:00,28.5,18.6,30.04,SW,218,2.0,11.0,66,0.00,,,0.00,Wunderground v.1.15,2014-01-30 12:49:00,
2014-01-30 06:52:00,28.5,18.9,30.04,West,277,1.0,9.0,67,0.00,,,0.00,Wunderground v.1.15,2014-01-30 12:52:00,
2014-01-30 06:54:00,28.5,18.9,30.04,WSW,249,4.0,10.0,67,0.00,,,0.00,Wunderground v.1.15,2014-01-30 12:54:00,
2014-01-30 06:57:00,28.4,18.8,30.03,West,263,1.0,10.0,67,0.00,,,0.00,Wunderground v.1.15,2014-01-30 12:57:00,
2014-01-30 06:58:00,28.4,18.8,30.03,West,265,1.0,10.0,67,0.00,,,0.00,Wunderground v.1.15,2014-01-30 12:58:00,
2014-01-30 06:59:00,28.3,18.7,30.03,South,180,3.0,10.0,67,0.00,,,0.00,Wunderground v.1.15,2014-01-30 12:59:00,
2014-01-30 07:00:00,28.3,18.7,30.03,South,176,6.0,6.0,67,0.00,,,0.00,Wunderground v.1.15,2014-01-30 13:00:00,
2014-01-30 07:02:00,28.3,18.7,30.03,WSW,247,2.0,7.0,67,0.00,,,0.00,Wunderground v.1.15,2014-01-30 13:02:00,
2014-01-30 07:04:00,28.3,18.7,30.03,WSW,248,6.0,8.0,67,0.00,,,0.00,Wunderground v.1.15,2014-01-30 13:04:00,
2014-01-30 07:05:00,28.3,18.7,30.03,WSW,254,6.0,9.0,67,0.00,,,0.00,Wunderground v.1.15,2014-01-30 13:05:00,
2014-01-30 07:07:00,28.3,19.1,30.03,SSW,192,5.0,9.0,68,0.00,,,0.00,Wunderground v.1.15,2014-01-30 13:07:00,
2014-01-30 07:09:00,28.3,19.1,30.03,SSW,204,5.0,9.0,68,0.00,,,0.00,Wunderground v.1.15,2014-01-30 13:09:00,
2014-01-30 07:10:00,28.3,19.1,30.03,SSW,192,4.0,5.0,68,0.00,,,0.00,Wunderground v.1.15,2014-01-30 13:10:00,
2014-01-30 07:11:00,28.3,19.1,30.03,West,272,0.0,6.0,68,0.00,,,0.00,Wunderground v.1.15,2014-01-30 13:11:00,
2014-01-30 07:13:00,28.3,19.1,30.03,WSW,247,2.0,7.0,68,0.00,,,0.00,Wunderground v.1.15,2014-01-30 13:13:00,
2014-01-30 07:15:00,28.3,19.1,30.03,WSW,247,2.0,7.0,68,0.00,,,0.00,Wunderground v.1.15,2014-01-30 13:15:00,
2014-01-30 07:16:00,28.3,19.1,30.03,SW,226,5.0,9.0,68,0.00,,,0.00,Wunderground v.1.15,2014-01-30 13:16:00,
2014-01-30 07:18:00,28.3,19.1,30.03,SSE,152,4.0,9.0,68,0.00,,,0.00,Wunderground v.1.15,2014-01-30 13:18:00,
2014-01-30 07:20:00,28.2,19.0,30.02,South,171,3.0,7.0,68,0.00,,,0.00,Wunderground v.1.15,2014-01-30 13:20:00,
2014-01-30 07:21:00,28.2,19.0,30.02,WSW,247,6.0,9.0,68,0.00,,,0.00,Wunderground v.1.15,2014-01-30 13:21:00,
2014-01-30 07:23:00,28.2,19.3,30.02,WSW,251,2.0,10.0,69,0.00,,,0.00,Wunderground v.1.15,2014-01-30 13:23:00,
2014-01-30 07:25:00,28.2,19.3,30.02,South,175,4.0,10.0,69,0.00,,,0.00,Wunderground v.1.15,2014-01-30 13:25:00,
2014-01-30 07:27:00,28.2,19.3,30.02,WSW,256,1.0,10.0,69,0.00,,,0.00,Wunderground v.1.15,2014-01-30 13:27:00,
2014-01-30 07:28:00,28.2,19.3,30.02,South,185,7.0,10.0,69,0.00,,,0.00,Wunderground v.1.15,2014-01-30 13:28:00,
2014-01-30 07:30:00,28.2,19.3,30.02,SSW,207,3.0,6.0,69,0.00,,,0.00,Wunderground v.1.15,2014-01-30 13:30:00,
2014-01-30 07:31:00,28.2,19.3,30.02,WSW,241,4.0,6.0,69,0.00,,,0.00,Wunderground v.1.15,2014-01-30 13:31:00,
2014-01-30 07:33:00,28.2,19.3,30.02,WSW,247,4.0,11.0,69,0.00,,,0.00,Wunderground v.1.15,2014-01-30 13:33:00,
2014-01-30 07:35:00,28.2,19.7,30.02,SSW,195,10.0,11.0,70,0.00,,,0.00,Wunderground v.1.15,2014-01-30 13:35:00,
2014-01-30 07:36:00,28.2,19.7,30.02,SSE,152,9.0,11.0,70,0.00,,,0.00,Wunderground v.1.15,2014-01-30 13:36:00,
2014-01-30 07:37:00,28.2,19.7,30.01,South,170,9.0,14.0,70,0.00,,,0.00,Wunderground v.1.15,2014-01-30 13:37:00,
2014-01-30 07:38:00,28.3,19.8,30.01,South,176,3.0,14.0,70,0.00,,,0.00,Wunderground v.1.15,2014-01-30 13:38:00,
2014-01-30 07:41:00,28.4,19.9,30.01,SSW,209,3.0,7.0,70,0.00,,,0.00,Wunderground v.1.15,2014-01-30 13:41:00,
2014-01-30 07:42:00,28.5,20.0,30.01,West,279,7.0,10.0,70,0.00,,,0.00,Wunderground v.1.15,2014-01-30 13:42:00,
2014-01-30 07:43:00,28.6,20.1,30.01,SSW,207,13.0,13.0,70,0.00,,,0.00,Wunderground v.1.15,2014-01-30 13:43:00,
2014-01-30 07:46:00,28.8,20.2,30.01,South,187,8.0,13.0,70,0.00,,,0.00,Wunderground v.1.15,2014-01-30 13:46:00,
2014-01-30 07:48:00,28.9,20.3,30.01,WSW,237,5.0,13.0,70,0.00,,,0.00,Wunderground v.1.15,2014-01-30 13:48:00,
2014-01-30 07:49:00,29.0,20.4,30.01,South,188,6.0,13.0,70,0.00,,,0.00,Wunderground v.1.15,2014-01-30 13:49:00,
2014-01-30 07:51:00,29.1,20.5,30.01,SE,138,2.0,7.0,70,0.00,,,0.00,Wunderground v.1.15,2014-01-30 13:51:00,
2014-01-30 07:52:00,29.1,20.5,30.01,West,261,2.0,7.0,70,0.00,,,0.00,Wunderground v.1.15,2014-01-30 13:52:00,
2014-01-30 07:54:00,29.1,20.5,30.01,WSW,249,5.0,9.0,70,0.00,,,0.00,Wunderground v.1.15,2014-01-30 13:54:00,
2014-01-30 07:56:00,29.2,20.6,30.01,SW,224,3.0,12.0,70,0.00,,,0.00,Wunderground v.1.15,2014-01-30 13:56:00,
2014-01-30 07:58:00,29.4,20.8,30.01,West,262,3.0,12.0,70,0.00,,,0.00,Wunderground v.1.15,2014-01-30 13:58:00,
2014-01-30 07:59:00,29.5,20.9,30.01,South,177,7.0,12.0,70,0.00,,,0.00,Wunderground v.1.15,2014-01-30 13:59:00,
2014-01-30 08:01:00,29.8,21.2,30.02,WSW,256,4.0,5.0,70,0.00,,,0.00,Wunderground v.1.15,2014-01-30 14:01:00,
2014-01-30 08:03:00,30.0,21.4,30.02,South,190,7.0,9.0,70,0.00,,,0.00,Wunderground v.1.15,2014-01-30 14:03:00,
2014-01-30 08:04:00,30.1,21.2,30.02,WSW,240,7.0,9.0,69,0.00,,,0.00,Wunderground v.1.15,2014-01-30 14:04:00,
2014-01-30 08:05:00,30.2,21.2,30.02,West,278,2.0,9.0,69,0.00,,,0.00,Wunderground v.1.15,2014-01-30 14:05:00,
2014-01-30 08:06:00,30.3,21.3,30.02,South,172,10.0,13.0,69,0.00,,,0.00,Wunderground v.1.15,2014-01-30 14:06:00,
2014-01-30 08:08:00,30.6,21.6,30.02,West,268,2.0,13.0,69,0.00,,,0.00,Wunderground v.1.15,2014-01-30 14:08:00,
2014-01-30 08:09:00,30.7,21.7,30.02,WSW,240,3.0,13.0,69,0.00,,,0.00,Wunderground v.1.15,2014-01-30 14:09:00,
2014-01-30 08:10:00,30.7,21.7,30.01,SSE,165,2.0,13.0,69,0.00,,,0.00,Wunderground v.1.15,2014-01-30 14:10:00,
2014-01-30 08:11:00,30.9,21.9,30.02,WSW,238,7.0,10.0,69,0.00,,,0.00,Wunderground v.1.15,2014-01-30 14:11:00,
2014-01-30 08:14:00,31.2,22.2,30.01,SSE,153,4.0,12.0,69,0.00,,,0.00,Wunderground v.1.15,2014-01-30 14:14:00,
2014-01-30 08:15:00,31.2,22.2,30.01,South,190,9.0,12.0,69,0.00,,,0.00,Wunderground v.1.15,2014-01-30 14:15:00,
2014-01-30 08:17:00,31.4,22.1,30.01,SSW,199,6.0,12.0,68,0.00,,,0.00,Wunderground v.1.15,2014-01-30 14:17:00,
2014-01-30 08:19:00,31.6,22.6,30.01,SSE,161,7.0,12.0,69,0.00,,,0.00,Wunderground v.1.15,2014-01-30 14:19:00,
2014-01-30 08:20:00,31.8,22.8,30.01,West,275,4.0,12.0,69,0.00,,,0.00,Wunderground v.1.15,2014-01-30 14:20:00,
2014-01-30 08:21:00,31.8,22.8,30.01,SW,233,7.0,7.0,69,0.00,,,0.00,Wunderground v.1.15,2014-01-30 14:21:00,
2014-01-30 08:22:00,31.9,22.9,30.01,SE,145,8.0,8.0,69,0.00,,,0.00,Wunderground v.1.15,2014-01-30 14:22:00,
2014-01-30 08:24:00,32.1,23.1,30.01,SW,220,6.0,13.0,69,0.00,,,0.00,Wunderground v.1.15,2014-01-30 14:24:00,
2014-01-30 08:25:00,32.2,23.2,30.01,South,185,9.0,13.0,69,0.00,,,0.00,Wunderground v.1.15,2014-01-30 14:25:00,
2014-01-30 08:26:00,32.2,23.2,30.01,WSW,237,4.0,13.0,69,0.00,,,0.00,Wunderground v.1.15,2014-01-30 14:26:00,
2014-01-30 08:27:00,32.3,23.3,30.01,South,175,6.0,13.0,69,0.00,,,0.00,Wunderground v.1.15,2014-01-30 14:27:00,
2014-01-30 08:30:00,32.6,23.6,30.01,West,271,4.0,13.0,69,0.00,,,0.00,Wunderground v.1.15,2014-01-30 14:30:00,
2014-01-30 08:31:00,32.8,23.7,30.01,South,188,3.0,6.0,69,0.00,,,0.00,Wunderground v.1.15,2014-01-30 14:31:00,
2014-01-30 08:32:00,32.8,23.4,30.01,South,186,8.0,13.0,68,0.00,,,0.00,Wunderground v.1.15,2014-01-30 14:32:00,
2014-01-30 08:35:00,32.9,23.8,30.01,WSW,244,4.0,19.0,69,0.00,,,0.00,Wunderground v.1.15,2014-01-30 14:35:00,
2014-01-30 08:36:00,32.9,23.8,30.01,SSW,207,10.0,19.0,69,0.00,,,0.00,Wunderground v.1.15,2014-01-30 14:36:00,
2014-01-30 08:37:00,32.9,23.8,30.01,SSE,156,6.0,19.0,69,0.00,,,0.00,Wunderground v.1.15,2014-01-30 14:37:00,
2014-01-30 08:38:00,32.9,23.8,30.01,WSW,237,4.0,19.0,69,0.00,,,0.00,Wunderground v.1.15,2014-01-30 14:38:00,
2014-01-30 08:41:00,33.0,24.3,30.01,South,187,3.0,8.0,70,0.00,,,0.00,Wunderground v.1.15,2014-01-30 14:41:00,
2014-01-30 08:42:00,33.0,24.3,30.01,West,265,5.0,8.0,70,0.00,,,0.00,Wunderground v.1.15,2014-01-30 14:42:00,
2014-01-30 08:44:00,33.1,24.4,30.01,SSE,147,5.0,11.0,70,0.00,,,0.00,Wunderground v.1.15,2014-01-30 14:44:00,
2014-01-30 08:46:00,33.2,24.5,30.01,West,277,5.0,12.0,70,0.00,,,0.00,Wunderground v.1.15,2014-01-30 14:46:00,
2014-01-30 08:47:00,33.3,24.6,30.01,SSE,153,5.0,12.0,70,0.00,,,0.00,Wunderground v.1.15,2014-01-30 14:47:00,
2014-01-30 08:49:00,33.5,25.1,30.01,WSW,247,4.0,13.0,71,0.00,,,0.00,Wunderground v.1.15,2014-01-30 14:49:00,
2014-01-30 08:52:00,33.6,25.2,30.01,WNW,286,4.0,9.0,71,0.00,,,0.00,Wunderground v.1.15,2014-01-30 14:52:00,
2014-01-30 08:55:00,33.9,25.5,30.01,SSW,192,4.0,12.0,71,0.00,,,0.00,Wunderground v.1.15,2014-01-30 14:55:00,
2014-01-30 08:57:00,34.2,25.8,30.01,SSW,213,6.0,13.0,71,0.00,,,0.00,Wunderground v.1.15,2014-01-30 14:57:00,
2014-01-30 08:58:00,34.3,25.9,30.01,SW,216,9.0,13.0,71,0.00,,,0.00,Wunderground v.1.15,2014-01-30 14:58:00,
2014-01-30 09:02:00,34.5,26.1,30.01,WNW,294,9.0,9.0,71,0.00,,,0.00,Wunderground v.1.15,2014-01-30 15:02:00,
2014-01-30 09:03:00,34.5,26.1,30.01,WNW,294,9.0,9.0,71,0.00,,,0.00,Wunderground v.1.15,2014-01-30 15:03:00,
2014-01-30 09:07:00,35.0,26.5,30.01,SSE,166,7.0,15.0,71,0.00,,,0.00,Wunderground v.1.15,2014-01-30 15:07:00,
2014-01-30 09:08:00,35.1,26.6,30.01,West,262,8.0,15.0,71,0.00,,,0.00,Wunderground v.1.15,2014-01-30 15:08:00,
2014-01-30 09:09:00,35.1,26.6,30.01,South,174,6.0,15.0,71,0.00,,,0.00,Wunderground v.1.15,2014-01-30 15:09:00,
2014-01-30 09:12:00,35.4,26.9,30.01,WSW,258,5.0,12.0,71,0.00,,,0.00,Wunderground v.1.15,2014-01-30 15:12:00,
2014-01-30 09:13:00,35.4,26.9,30.01,SW,234,9.0,12.0,71,0.00,,,0.00,Wunderground v.1.15,2014-01-30 15:13:00,
2014-01-30 09:14:00,35.5,27.0,30.01,South,186,4.0,12.0,71,0.00,,,0.00,Wunderground v.1.15,2014-01-30 15:14:00,
2014-01-30 09:17:00,35.8,27.7,30.01,WSW,238,7.0,15.0,72,0.00,,,0.00,Wunderground v.1.15,2014-01-30 15:17:00,
2014-01-30 09:18:00,35.9,27.7,30.01,SW,230,8.0,15.0,72,0.00,,,0.00,Wunderground v.1.15,2014-01-30 15:18:00,
2014-01-30 09:19:00,36.0,27.8,30.01,SSW,209,14.0,15.0,72,0.00,,,0.00,Wunderground v.1.15,2014-01-30 15:19:00,
2014-01-30 09:22:00,36.3,28.1,30.01,West,281,4.0,13.0,72,0.00,,,0.00,Wunderground v.1.15,2014-01-30 15:22:00,
2014-01-30 09:23:00,36.3,28.1,30.01,NW,313,5.0,13.0,72,0.00,,,0.00,Wunderground v.1.15,2014-01-30 15:23:00,
2014-01-30 09:24:00,36.4,28.2,30.01,SSW,192,15.0,16.0,72,0.00,,,0.00,Wunderground v.1.15,2014-01-30 15:24:00,
2014-01-30 09:27:00,36.7,28.5,30.01,SSW,210,7.0,16.0,72,0.00,,,0.00,Wunderground v.1.15,2014-01-30 15:27:00,
2014-01-30 09:28:00,36.9,28.7,30.01,SSE,167,6.0,16.0,72,0.00,,,0.00,Wunderground v.1.15,2014-01-30 15:28:00,
2014-01-30 09:29:00,37.0,28.8,30.01,South,179,4.0,16.0,72,0.00,,,0.00,Wunderground v.1.15,2014-01-30 15:29:00,
2014-01-30 09:32:00,37.4,29.2,30.00,WSW,244,2.0,14.0,72,0.00,,,0.00,Wunderground v.1.15,2014-01-30 15:32:00,
2014-01-30 09:33:00,37.6,29.4,30.01,SW,234,3.0,14.0,72,0.00,,,0.00,Wunderground v.1.15,2014-01-30 15:33:00,
2014-01-30 09:34:00,37.7,29.5,30.01,SSW,210,11.0,14.0,72,0.00,,,0.00,Wunderground v.1.15,2014-01-30 15:34:00,
2014-01-30 09:35:00,38.0,29.8,30.01,SSW,204,8.0,14.0,72,0.00,,,0.00,Wunderground v.1.15,2014-01-30 15:35:00,
2014-01-30 09:37:00,38.3,29.7,30.01,WSW,252,4.0,14.0,71,0.00,,,0.00,Wunderground v.1.15,2014-01-30 15:37:00,
2014-01-30 09:38:00,38.6,30.0,30.01,SSE,165,7.0,14.0,71,0.00,,,0.00,Wunderground v.1.15,2014-01-30 15:38:00,
2014-01-30 09:39:00,38.7,30.1,30.01,WSW,240,10.0,14.0,71,0.00,,,0.00,Wunderground v.1.15,2014-01-30 15:39:00,
2014-01-30 09:40:00,38.9,29.9,30.01,WNW,292,5.0,7.0,70,0.00,,,0.00,Wunderground v.1.15,2014-01-30 15:40:00,
2014-01-30 09:42:00,39.2,30.2,30.01,WSW,242,3.0,17.0,70,0.00,,,0.00,Wunderground v.1.15,2014-01-30 15:42:00,
2014-01-30 09:44:00,39.4,30.4,30.01,SW,228,5.0,17.0,70,0.00,,,0.00,Wunderground v.1.15,2014-01-30 15:44:00,
2014-01-30 09:45:00,39.7,30.7,30.00,WSW,251,4.0,17.0,70,0.00,,,0.00,Wunderground v.1.15,2014-01-30 15:45:00,
2014-01-30 09:47:00,40.2,30.8,30.00,WSW,250,5.0,17.0,69,0.00,,,0.00,Wunderground v.1.15,2014-01-30 15:47:00,
2014-01-30 09:49:00,40.5,31.1,30.00,SSW,197,5.0,17.0,69,0.00,,,0.00,Wunderground v.1.15,2014-01-30 15:49:00,
2014-01-30 09:50:00,40.7,31.0,30.00,SW,221,5.0,10.0,68,0.00,,,0.00,Wunderground v.1.15,2014-01-30 15:50:00,
2014-01-30 09:52:00,41.1,31.3,30.00,SW,231,8.0,15.0,68,0.00,,,0.00,Wunderground v.1.15,2014-01-30 15:52:00,
2014-01-30 09:54:00,41.2,31.1,30.00,NE,43,1.0,15.0,67,0.00,,,0.00,Wunderground v.1.15,2014-01-30 15:54:00,
2014-01-30 09:55:00,41.3,31.2,30.01,SW,231,9.0,15.0,67,0.00,,,0.00,Wunderground v.1.15,2014-01-30 15:55:00,
2014-01-30 09:56:00,41.4,31.3,30.01,WSW,258,4.0,15.0,67,0.00,,,0.00,Wunderground v.1.15,2014-01-30 15:56:00,
2014-01-30 09:58:00,41.5,31.4,30.01,SW,214,6.0,15.0,67,0.00,,,0.00,Wunderground v.1.15,2014-01-30 15:58:00,
2014-01-30 09:59:00,41.6,31.4,30.01,WSW,256,4.0,15.0,67,0.00,,,0.00,Wunderground v.1.15,2014-01-30 15:59:00,
2014-01-30 10:01:00,41.8,31.6,30.01,SW,218,8.0,10.0,67,0.00,,,0.00,Wunderground v.1.15,2014-01-30 16:01:00,
2014-01-30 10:03:00,41.8,31.6,30.00,SW,218,8.0,10.0,67,0.00,,,0.00,Wunderground v.1.15,2014-01-30 16:03:00,
2014-01-30 10:05:00,41.8,31.6,30.00,SW,218,8.0,10.0,67,0.00,,,0.00,Wunderground v.1.15,2014-01-30 16:05:00,
2014-01-30 10:06:00,42.6,32.4,30.00,West,270,4.0,10.0,67,0.00,,,0.00,Wunderground v.1.15,2014-01-30 16:06:00,
2014-01-30 10:07:00,42.8,32.2,30.01,WSW,251,5.0,11.0,66,0.00,,,0.00,Wunderground v.1.15,2014-01-30 16:07:00,
2014-01-30 10:08:00,42.9,32.3,30.01,SSW,199,6.0,11.0,66,0.00,,,0.00,Wunderground v.1.15,2014-01-30 16:08:00,
2014-01-30 10:10:00,43.3,32.7,30.01,SW,231,5.0,10.0,66,0.00,,,0.00,Wunderground v.1.15,2014-01-30 16:10:00,
2014-01-30 10:11:00,43.5,32.9,30.01,WSW,239,5.0,14.0,66,0.00,,,0.00,Wunderground v.1.15,2014-01-30 16:11:00,
2014-01-30 10:12:00,43.6,32.6,30.00,WSW,238,3.0,14.0,65,0.00,,,0.00,Wunderground v.1.15,2014-01-30 16:12:00,
2014-01-30 10:13:00,43.7,32.7,30.00,WNW,292,2.0,18.0,65,0.00,,,0.00,Wunderground v.1.15,2014-01-30 16:13:00,
2014-01-30 10:15:00,44.1,33.1,30.00,South,172,7.0,18.0,65,0.00,,,0.00,Wunderground v.1.15,2014-01-30 16:15:00,
2014-01-30 10:17:00,44.3,33.3,30.00,WNW,294,3.0,18.0,65,0.00,,,0.00,Wunderground v.1.15,2014-01-30 16:17:00,
2014-01-30 10:18:00,44.5,33.5,30.00,SSW,196,4.0,18.0,65,0.00,,,0.00,Wunderground v.1.15,2014-01-30 16:18:00,
2014-01-30 10:20:00,45.0,33.9,30.00,SW,216,4.0,10.0,65,0.00,,,0.00,Wunderground v.1.15,2014-01-30 16:20:00,
2014-01-30 10:22:00,45.3,34.2,30.00,South,174,6.0,13.0,65,0.00,,,0.00,Wunderground v.1.15,2014-01-30 16:22:00,
2014-01-30 10:23:00,45.5,34.0,30.00,NNW,344,4.0,14.0,64,0.00,,,0.00,Wunderground v.1.15,2014-01-30 16:23:00,
2014-01-30 10:25:00,45.8,34.3,30.00,South,179,5.0,15.0,64,0.00,,,0.00,Wunderground v.1.15,2014-01-30 16:25:00,
2014-01-30 10:27:00,46.0,34.1,30.00,WSW,258,6.0,15.0,63,0.00,,,0.00,Wunderground v.1.15,2014-01-30 16:27:00,
2014-01-30 10:28:00,46.3,34.4,30.00,West,266,7.0,15.0,63,0.00,,,0.00,Wunderground v.1.15,2014-01-30 16:28:00,
2014-01-30 10:30:00,46.6,34.7,30.00,SE,126,8.0,11.0,63,0.00,,,0.00,Wunderground v.1.15,2014-01-30 16:30:00,
2014-01-30 10:32:00,46.7,34.4,30.00,South,175,8.0,15.0,62,0.00,,,0.00,Wunderground v.1.15,2014-01-30 16:32:00,
2014-01-30 10:33:00,46.8,34.5,30.00,West,266,7.0,15.0,62,0.00,,,0.00,Wunderground v.1.15,2014-01-30 16:33:00,
2014-01-30 10:36:00,47.3,34.9,30.00,WNW,301,11.0,16.0,62,0.00,,,0.00,Wunderground v.1.15,2014-01-30 16:36:00,
2014-01-30 10:37:00,47.3,34.9,30.00,WNW,301,5.0,16.0,62,0.00,,,0.00,Wunderground v.1.15,2014-01-30 16:37:00,
2014-01-30 10:38:00,47.5,35.1,29.99,South,185,8.0,16.0,62,0.00,,,0.00,Wunderground v.1.15,2014-01-30 16:38:00,
2014-01-30 10:39:00,47.6,35.2,29.99,SW,217,11.0,16.0,62,0.00,,,0.00,Wunderground v.1.15,2014-01-30 16:39:00,
2014-01-30 10:41:00,47.8,35.0,29.99,WSW,241,14.0,17.0,61,0.00,,,0.00,Wunderground v.1.15,2014-01-30 16:41:00,
2014-01-30 10:42:00,48.0,35.2,29.99,SW,234,11.0,17.0,61,0.00,,,0.00,Wunderground v.1.15,2014-01-30 16:42:00,
2014-01-30 10:43:00,48.1,35.3,29.99,WSW,258,3.0,17.0,61,0.00,,,0.00,Wunderground v.1.15,2014-01-30 16:43:00,
2014-01-30 10:44:00,48.3,35.5,29.99,WSW,258,8.0,17.0,61,0.00,,,0.00,Wunderground v.1.15,2014-01-30 16:44:00,
2014-01-30 10:46:00,48.9,36.0,29.99,SW,227,9.0,17.0,61,0.00,,,0.00,Wunderground v.1.15,2014-01-30 16:46:00,
2014-01-30 10:48:00,49.1,35.8,29.99,East,90,9.0,17.0,60,0.00,,,0.00,Wunderground v.1.15,2014-01-30 16:48:00,
2014-01-30 10:49:00,49.3,36.0,29.99,SW,221,10.0,17.0,60,0.00,,,0.00,Wunderground v.1.15,2014-01-30 16:49:00,
2014-01-30 10:51:00,49.6,35.8,29.98,South,191,8.0,18.0,59,0.00,,,0.00,Wunderground v.1.15,2014-01-30 16:51:00,
2014-01-30 10:53:00,49.6,35.8,29.98,SW,235,10.0,18.0,59,0.00,,,0.00,Wunderground v.1.15,2014-01-30 16:53:00,
2014-01-30 10:54:00,49.7,35.9,29.98,SSW,207,8.0,18.0,59,0.00,,,0.00,Wunderground v.1.15,2014-01-30 16:54:00,
2014-01-30 10:55:00,49.7,35.9,29.98,SW,216,13.0,18.0,59,0.00,,,0.00,Wunderground v.1.15,2014-01-30 16:55:00,
2014-01-30 10:56:00,49.8,36.0,29.97,SW,224,7.0,18.0,59,0.00,,,0.00,Wunderground v.1.15,2014-01-30 16:56:00,
2014-01-30 10:58:00,50.1,36.3,29.97,South,177,9.0,20.0,59,0.00,,,0.00,Wunderground v.1.15,2014-01-30 16:58:00,
2014-01-30 10:59:00,50.3,36.1,29.97,West,261,3.0,20.0,58,0.00,,,0.00,Wunderground v.1.15,2014-01-30 16:59:00,
2014-01-30 11:00:00,50.4,36.2,29.97,South,169,8.0,8.0,58,0.00,,,0.00,Wunderground v.1.15,2014-01-30 17:00:00,
2014-01-30 11:02:00,50.5,36.3,29.98,West,261,8.0,12.0,58,0.00,,,0.00,Wunderground v.1.15,2014-01-30 17:02:00,
2014-01-30 11:04:00,50.5,36.3,29.98,West,261,8.0,12.0,58,0.00,,,0.00,Wunderground v.1.15,2014-01-30 17:04:00,
2014-01-30 11:05:00,51.1,36.8,29.98,SSE,157,3.0,12.0,58,0.00,,,0.00,Wunderground v.1.15,2014-01-30 17:05:00,
2014-01-30 11:06:00,51.1,36.8,29.98,NW,322,4.0,12.0,58,0.00,,,0.00,Wunderground v.1.15,2014-01-30 17:06:00,
2014-01-30 11:07:00,51.2,36.5,29.97,West,261,3.0,13.0,57,0.00,,,0.00,Wunderground v.1.15,2014-01-30 17:07:00,
2014-01-30 11:09:00,51.2,36.5,29.97,West,279,7.0,13.0,57,0.00,,,0.00,Wunderground v.1.15,2014-01-30 17:09:00,
2014-01-30 11:10:00,51.2,36.5,29.97,WSW,247,5.0,8.0,57,0.00,,,0.00,Wunderground v.1.15,2014-01-30 17:10:00,
2014-01-30 11:11:00,51.4,36.7,29.97,South,186,6.0,8.0,57,0.00,,,0.00,Wunderground v.1.15,2014-01-30 17:11:00,
2014-01-30 11:12:00,51.6,36.9,29.97,SW,221,10.0,13.0,57,0.00,,,0.00,Wunderground v.1.15,2014-01-30 17:12:00,
2014-01-30 11:14:00,51.8,37.0,29.97,WNW,283,8.0,19.0,57,0.00,,,0.00,Wunderground v.1.15,2014-01-30 17:14:00,
2014-01-30 11:15:00,51.8,36.6,29.97,South,177,9.0,19.0,56,0.00,,,0.00,Wunderground v.1.15,2014-01-30 17:15:00,
2014-01-30 11:16:00,51.9,36.7,29.97,WNW,285,12.0,19.0,56,0.00,,,0.00,Wunderground v.1.15,2014-01-30 17:16:00,
2014-01-30 11:17:00,51.9,36.7,29.97,SW,217,4.0,19.0,56,0.00,,,0.00,Wunderground v.1.15,2014-01-30 17:17:00,
2014-01-30 11:19:00,52.0,36.8,29.96,South,178,15.0,19.0,56,0.00,,,0.00,Wunderground v.1.15,2014-01-30 17:19:00,
2014-01-30 11:20:00,52.0,36.8,29.96,SSW,206,11.0,11.0,56,0.00,,,0.00,Wunderground v.1.15,2014-01-30 17:20:00,
2014-01-30 11:21:00,52.1,36.9,29.96,SW,232,6.0,17.0,56,0.00,,,0.00,Wunderground v.1.15,2014-01-30 17:21:00,
2014-01-30 11:22:00,52.2,37.0,29.96,SSE,167,23.0,23.0,56,0.00,,,0.00,Wunderground v.1.15,2014-01-30 17:22:00,
2014-01-30 11:24:00,52.2,37.0,29.95,SSW,192,13.0,23.0,56,0.00,,,0.00,Wunderground v.1.15,2014-01-30 17:24:00,
2014-01-30 11:25:00,52.2,37.0,29.95,SW,235,4.0,23.0,56,0.00,,,0.00,Wunderground v.1.15,2014-01-30 17:25:00,
2014-01-30 11:26:00,52.3,37.1,29.94,South,186,7.0,23.0,56,0.00,,,0.00,Wunderground v.1.15,2014-01-30 17:26:00,
2014-01-30 11:27:00,52.5,37.2,29.94,WSW,251,9.0,23.0,56,0.00,,,0.00,Wunderground v.1.15,2014-01-30 17:27:00,
2014-01-30 11:29:00,52.9,37.2,29.94,WSW,251,11.0,23.0,55,0.00,,,0.00,Wunderground v.1.15,2014-01-30 17:29:00,
2014-01-30 11:30:00,52.9,37.2,29.94,WNW,286,7.0,11.0,55,0.00,,,0.00,Wunderground v.1.15,2014-01-30 17:30:00,
2014-01-30 11:31:00,53.0,37.3,29.94,NW,315,5.0,19.0,55,0.00,,,0.00,Wunderground v.1.15,2014-01-30 17:31:00,
2014-01-30 11:32:00,53.1,37.3,29.94,WSW,251,13.0,19.0,55,0.00,,,0.00,Wunderground v.1.15,2014-01-30 17:32:00,
2014-01-30 11:34:00,53.3,37.5,29.94,SE,143,10.0,19.0,55,0.00,,,0.00,Wunderground v.1.15,2014-01-30 17:34:00,
2014-01-30 11:36:00,53.6,37.8,29.94,West,272,7.0,19.0,55,0.00,,,0.00,Wunderground v.1.15,2014-01-30 17:36:00,
2014-01-30 11:37:00,53.6,37.3,29.94,NW,306,6.0,19.0,54,0.00,,,0.00,Wunderground v.1.15,2014-01-30 17:37:00,
2014-01-30 11:38:00,53.7,37.4,29.94,SSW,204,9.0,19.0,54,0.00,,,0.00,Wunderground v.1.15,2014-01-30 17:38:00,
2014-01-30 11:39:00,53.7,37.4,29.93,SW,231,4.0,19.0,54,0.00,,,0.00,Wunderground v.1.15,2014-01-30 17:39:00,
2014-01-30 11:42:00,53.9,37.6,29.93,South,186,9.0,19.0,54,0.00,,,0.00,Wunderground v.1.15,2014-01-30 17:42:00,
2014-01-30 11:43:00,53.9,37.6,29.93,WSW,237,11.0,24.0,54,0.00,,,0.00,Wunderground v.1.15,2014-01-30 17:43:00,
2014-01-30 11:44:00,54.1,37.8,29.93,SW,220,10.0,24.0,54,0.00,,,0.00,Wunderground v.1.15,2014-01-30 17:44:00,
2014-01-30 11:47:00,54.5,38.2,29.92,SW,214,13.0,24.0,54,0.00,,,0.00,Wunderground v.1.15,2014-01-30 17:47:00,
2014-01-30 11:48:00,54.6,38.3,29.92,WNW,282,6.0,24.0,54,0.00,,,0.00,Wunderground v.1.15,2014-01-30 17:48:00,
2014-01-30 11:50:00,55.0,38.6,29.93,West,259,4.0,9.0,54,0.00,,,0.00,Wunderground v.1.15,2014-01-30 17:50:00,
2014-01-30 11:53:00,55.6,38.2,29.93,WSW,254,2.0,13.0,52,0.00,,,0.00,Wunderground v.1.15,2014-01-30 17:53:00,
2014-01-30 11:55:00,55.9,38.5,29.93,WSW,244,9.0,13.0,52,0.00,,,0.00,Wunderground v.1.15,2014-01-30 17:55:00,
2014-01-30 11:58:00,56.0,38.1,29.94,WSW,244,7.0,15.0,51,0.00,,,0.00,Wunderground v.1.15,2014-01-30 17:58:00,
2014-01-30 12:00:00,56.1,38.7,29.94,West,270,3.0,9.0,52,0.00,,,0.00,Wunderground v.1.15,2014-01-30 18:00:00,
2014-01-30 12:03:00,56.2,38.8,29.94,WSW,258,5.0,9.0,52,0.00,,,0.00,Wunderground v.1.15,2014-01-30 18:03:00,
2014-01-30 12:04:00,56.2,38.8,29.94,WSW,258,5.0,9.0,52,0.00,,,0.00,Wunderground v.1.15,2014-01-30 18:04:00,
2014-01-30 12:05:00,56.2,38.8,29.94,WSW,258,5.0,9.0,52,0.00,,,0.00,Wunderground v.1.15,2014-01-30 18:05:00,
2014-01-30 12:06:00,56.2,38.8,29.94,WSW,258,5.0,9.0,52,0.00,,,0.00,Wunderground v.1.15,2014-01-30 18:06:00,
2014-01-30 12:08:00,56.9,38.9,29.94,South,171,5.0,14.0,51,0.00,,,0.00,Wunderground v.1.15,2014-01-30 18:08:00,
2014-01-30 12:09:00,56.9,38.9,29.94,WSW,255,7.0,17.0,51,0.00,,,0.00,Wunderground v.1.15,2014-01-30 18:09:00,
2014-01-30 12:10:00,56.8,38.9,29.94,SW,223,8.0,12.0,51,0.00,,,0.00,Wunderground v.1.15,2014-01-30 18:10:00,
2014-01-30 12:12:00,56.9,38.4,29.93,WSW,256,4.0,13.0,50,0.00,,,0.00,Wunderground v.1.15,2014-01-30 18:12:00,
2014-01-30 12:13:00,57.0,38.5,29.93,WSW,246,13.0,18.0,50,0.00,,,0.00,Wunderground v.1.15,2014-01-30 18:13:00,
2014-01-30 12:14:00,57.0,38.5,29.93,SSE,168,8.0,20.0,50,0.00,,,0.00,Wunderground v.1.15,2014-01-30 18:14:00,
2014-01-30 12:15:00,57.1,38.6,29.93,West,279,6.0,20.0,50,0.00,,,0.00,Wunderground v.1.15,2014-01-30 18:15:00,
2014-01-30 12:17:00,57.3,38.8,29.93,South,172,8.0,20.0,50,0.00,,,0.00,Wunderground v.1.15,2014-01-30 18:17:00,
2014-01-30 12:18:00,57.5,39.0,29.93,West,272,5.0,20.0,50,0.00,,,0.00,Wunderground v.1.15,2014-01-30 18:18:00,
2014-01-30 12:19:00,57.6,39.1,29.93,SSW,209,11.0,20.0,50,0.00,,,0.00,Wunderground v.1.15,2014-01-30 18:19:00,
2014-01-30 12:20:00,57.8,39.3,29.93,West,261,8.0,12.0,50,0.00,,,0.00,Wunderground v.1.15,2014-01-30 18:20:00,
2014-01-30 12:22:00,57.9,38.8,29.93,WNW,299,3.0,13.0,49,0.00,,,0.00,Wunderground v.1.15,2014-01-30 18:22:00,
2014-01-30 12:24:00,58.0,38.9,29.93,WSW,248,11.0,20.0,49,0.00,,,0.00,Wunderground v.1.15,2014-01-30 18:24:00,
2014-01-30 12:25:00,58.1,39.0,29.93,SSE,159,5.0,20.0,49,0.00,,,0.00,Wunderground v.1.15,2014-01-30 18:25:00,
2014-01-30 12:28:00,58.2,39.1,29.93,NE,42,4.0,20.0,49,0.00,,,0.00,Wunderground v.1.15,2014-01-30 18:28:00,
2014-01-30 12:29:00,58.3,39.2,29.93,South,188,11.0,20.0,49,0.00,,,0.00,Wunderground v.1.15,2014-01-30 18:29:00,
2014-01-30 12:30:00,58.3,39.2,29.92,SSW,206,9.0,9.0,49,0.00,,,0.00,Wunderground v.1.15,2014-01-30 18:30:00,
2014-01-30 12:31:00,58.4,39.3,29.92,WNW,290,5.0,9.0,49,0.00,,,0.00,Wunderground v.1.15,2014-01-30 18:31:00,
2014-01-30 12:33:00,59.0,39.3,29.92,WSW,240,9.0,13.0,48,0.00,,,0.00,Wunderground v.1.15,2014-01-30 18:33:00,
2014-01-30 12:34:00,59.1,39.4,29.92,WSW,256,9.0,16.0,48,0.00,,,0.00,Wunderground v.1.15,2014-01-30 18:34:00,
2014-01-30 12:35:00,59.1,38.9,29.92,West,261,10.0,16.0,47,0.00,,,0.00,Wunderground v.1.15,2014-01-30 18:35:00,
2014-01-30 12:36:00,59.1,38.9,29.92,WSW,251,7.0,18.0,47,0.00,,,0.00,Wunderground v.1.15,2014-01-30 18:36:00,
2014-01-30 12:39:00,59.2,39.0,29.92,West,262,10.0,18.0,47,0.00,,,0.00,Wunderground v.1.15,2014-01-30 18:39:00,
2014-01-30 12:40:00,59.3,39.6,29.92,SSE,150,6.0,16.0,48,0.00,,,0.00,Wunderground v.1.15,2014-01-30 18:40:00,
2014-01-30 12:41:00,59.3,39.6,29.92,West,277,5.0,16.0,48,0.00,,,0.00,Wunderground v.1.15,2014-01-30 18:41:00,
2014-01-30 12:44:00,59.6,39.3,29.91,SSW,195,11.0,17.0,47,0.00,,,0.00,Wunderground v.1.15,2014-01-30 18:44:00,
2014-01-30 12:45:00,59.6,39.3,29.91,SW,220,11.0,17.0,47,0.00,,,0.00,Wunderground v.1.15,2014-01-30 18:45:00,
2014-01-30 12:46:00,59.7,39.4,29.90,West,260,9.0,17.0,47,0.00,,,0.00,Wunderground v.1.15,2014-01-30 18:46:00,
2014-01-30 12:47:00,59.7,39.4,29.90,SW,218,11.0,17.0,47,0.00,,,0.00,Wunderground v.1.15,2014-01-30 18:47:00,
2014-01-30 12:49:00,59.8,39.5,29.90,WSW,249,11.0,17.0,47,0.00,,,0.00,Wunderground v.1.15,2014-01-30 18:49:00,
2014-01-30 12:50:00,59.8,39.5,29.90,West,261,5.0,7.0,47,0.00,,,0.00,Wunderground v.1.15,2014-01-30 18:50:00,
2014-01-30 12:51:00,60.0,39.7,29.90,West,262,5.0,16.0,47,0.00,,,0.00,Wunderground v.1.15,2014-01-30 18:51:00,
2014-01-30 12:52:00,60.0,39.7,29.90,West,276,6.0,16.0,47,0.00,,,0.00,Wunderground v.1.15,2014-01-30 18:52:00,
2014-01-30 12:54:00,60.0,39.7,29.90,West,262,4.0,16.0,47,0.00,,,0.00,Wunderground v.1.15,2014-01-30 18:54:00,
2014-01-30 12:55:00,60.1,39.8,29.90,WNW,294,2.0,16.0,47,0.00,,,0.00,Wunderground v.1.15,2014-01-30 18:55:00,
2014-01-30 12:56:00,60.2,39.9,29.90,SW,234,6.0,16.0,47,0.00,,,0.00,Wunderground v.1.15,2014-01-30 18:56:00,
2014-01-30 12:57:00,60.2,39.9,29.90,West,263,5.0,16.0,47,0.00,,,0.00,Wunderground v.1.15,2014-01-30 18:57:00,
2014-01-30 12:59:00,60.6,39.7,29.89,NNW,327,4.0,18.0,46,0.00,,,0.00,Wunderground v.1.15,2014-01-30 18:59:00,
2014-01-30 13:01:00,60.6,39.7,29.88,North,354,10.0,14.0,46,0.00,,,0.00,Wunderground v.1.15,2014-01-30 19:01:00,
2014-01-30 13:02:00,60.6,39.7,29.88,North,354,10.0,14.0,46,0.00,,,0.00,Wunderground v.1.15,2014-01-30 19:02:00,
2014-01-30 13:04:00,60.5,39.6,29.88,WSW,254,4.0,14.0,46,0.00,,,0.00,Wunderground v.1.15,2014-01-30 19:04:00,
2014-01-30 13:06:00,60.6,39.7,29.88,West,275,3.0,15.0,46,0.00,,,0.00,Wunderground v.1.15,2014-01-30 19:06:00,
2014-01-30 13:07:00,60.7,39.8,29.88,West,270,9.0,15.0,46,0.00,,,0.00,Wunderground v.1.15,2014-01-30 19:07:00,
2014-01-30 13:10:00,60.8,39.3,29.88,SSW,206,14.0,14.0,45,0.00,,,0.00,Wunderground v.1.15,2014-01-30 19:10:00,
2014-01-30 13:12:00,60.9,40.0,29.87,WSW,249,9.0,15.0,46,0.00,,,0.00,Wunderground v.1.15,2014-01-30 19:12:00,
2014-01-30 13:13:00,60.9,39.4,29.87,WNW,290,6.0,16.0,45,0.00,,,0.00,Wunderground v.1.15,2014-01-30 19:13:00,
2014-01-30 13:15:00,60.9,40.0,29.87,WNW,287,13.0,16.0,46,0.00,,,0.00,Wunderground v.1.15,2014-01-30 19:15:00,
2014-01-30 13:17:00,61.0,39.5,29.87,SW,221,5.0,16.0,45,0.00,,,0.00,Wunderground v.1.15,2014-01-30 19:17:00,
2014-01-30 13:18:00,61.1,39.6,29.86,SSW,199,5.0,16.0,45,0.00,,,0.00,Wunderground v.1.15,2014-01-30 19:18:00,
2014-01-30 13:20:00,61.3,39.8,29.86,SW,224,7.0,12.0,45,0.00,,,0.00,Wunderground v.1.15,2014-01-30 19:20:00,
2014-01-30 13:22:00,61.4,39.9,29.86,SW,228,5.0,16.0,45,0.00,,,0.00,Wunderground v.1.15,2014-01-30 19:22:00,
2014-01-30 13:23:00,61.5,39.9,29.86,South,188,4.0,16.0,45,0.00,,,0.00,Wunderground v.1.15,2014-01-30 19:23:00,
2014-01-30 13:25:00,61.7,40.1,29.86,WSW,255,11.0,16.0,45,0.00,,,0.00,Wunderground v.1.15,2014-01-30 19:25:00,
2014-01-30 13:27:00,62.0,40.4,29.86,WSW,241,3.0,16.0,45,0.00,,,0.00,Wunderground v.1.15,2014-01-30 19:27:00,
2014-01-30 13:28:00,62.0,40.4,29.86,SSE,164,7.0,16.0,45,0.00,,,0.00,Wunderground v.1.15,2014-01-30 19:28:00,
2014-01-30 13:30:00,62.2,40.0,29.87,West,261,9.0,9.0,44,0.00,,,0.00,Wunderground v.1.15,2014-01-30 19:30:00,
2014-01-30 13:32:00,62.4,40.2,29.86,SW,225,15.0,16.0,44,0.00,,,0.00,Wunderground v.1.15,2014-01-30 19:32:00,
2014-01-30 13:33:00,62.4,40.2,29.86,WSW,237,17.0,17.0,44,0.00,,,0.00,Wunderground v.1.15,2014-01-30 19:33:00,
2014-01-30 13:34:00,62.4,40.2,29.86,SSW,204,10.0,17.0,44,0.00,,,0.00,Wunderground v.1.15,2014-01-30 19:34:00,
2014-01-30 13:35:00,62.6,40.4,29.86,WNW,286,8.0,17.0,44,0.00,,,0.00,Wunderground v.1.15,2014-01-30 19:35:00,
2014-01-30 13:38:00,62.6,40.4,29.86,SSW,199,5.0,17.0,44,0.00,,,0.00,Wunderground v.1.15,2014-01-30 19:38:00,
2014-01-30 13:39:00,62.5,40.3,29.86,WNW,282,3.0,17.0,44,0.00,,,0.00,Wunderground v.1.15,2014-01-30 19:39:00,
2014-01-30 13:41:00,62.6,40.4,29.86,West,272,9.0,15.0,44,0.00,,,0.00,Wunderground v.1.15,2014-01-30 19:41:00,
2014-01-30 13:43:00,62.8,40.5,29.86,WSW,238,4.0,15.0,44,0.00,,,0.00,Wunderground v.1.15,2014-01-30 19:43:00,
2014-01-30 13:44:00,62.9,40.0,29.86,WSW,255,8.0,15.0,43,0.00,,,0.00,Wunderground v.1.15,2014-01-30 19:44:00,
2014-01-30 13:46:00,62.9,40.0,29.86,West,270,8.0,15.0,43,0.00,,,0.00,Wunderground v.1.15,2014-01-30 19:46:00,
2014-01-30 13:48:00,63.0,40.1,29.85,WNW,286,17.0,18.0,43,0.00,,,0.00,Wunderground v.1.15,2014-01-30 19:48:00,
2014-01-30 13:49:00,63.0,40.1,29.85,SSW,192,17.0,18.0,43,0.00,,,0.00,Wunderground v.1.15,2014-01-30 19:49:00,
2014-01-30 13:50:00,62.8,39.4,29.86,West,261,7.0,16.0,42,0.00,,,0.00,Wunderground v.1.15,2014-01-30 19:50:00,
2014-01-30 13:51:00,62.8,39.4,29.86,West,280,10.0,16.0,42,0.00,,,0.00,Wunderground v.1.15,2014-01-30 19:51:00,
2014-01-30 13:53:00,62.9,40.0,29.85,SW,223,7.0,16.0,43,0.00,,,0.00,Wunderground v.1.15,2014-01-30 19:53:00,
2014-01-30 13:54:00,62.9,40.0,29.85,SW,234,11.0,16.0,43,0.00,,,0.00,Wunderground v.1.15,2014-01-30 19:54:00,
2014-01-30 13:55:00,63.0,40.1,29.85,WSW,256,8.0,16.0,43,0.00,,,0.00,Wunderground v.1.15,2014-01-30 19:55:00,
2014-01-30 13:56:00,63.2,40.3,29.85,WSW,238,4.0,16.0,43,0.00,,,0.00,Wunderground v.1.15,2014-01-30 19:56:00,
2014-01-30 13:57:00,63.4,40.5,29.85,South,173,6.0,16.0,43,0.00,,,0.00,Wunderground v.1.15,2014-01-30 19:57:00,
2014-01-30 13:59:00,63.5,40.0,29.85,West,269,5.0,16.0,42,0.00,,,0.00,Wunderground v.1.15,2014-01-30 19:59:00,
2014-01-30 14:00:00,63.5,40.0,29.85,SW,232,5.0,13.0,42,0.00,,,0.00,Wunderground v.1.15,2014-01-30 20:00:00,
2014-01-30 14:02:00,63.4,39.9,29.85,West,276,9.0,13.0,42,0.00,,,0.00,Wunderground v.1.15,2014-01-30 20:02:00,
2014-01-30 14:03:00,63.4,39.9,29.85,West,276,9.0,13.0,42,0.00,,,0.00,Wunderground v.1.15,2014-01-30 20:03:00,
2014-01-30 14:04:00,63.4,39.9,29.85,West,276,9.0,13.0,42,0.00,,,0.00,Wunderground v.1.15,2014-01-30 20:04:00,
2014-01-30 14:05:00,63.6,40.1,29.85,SSW,200,9.0,17.0,42,0.00,,,0.00,Wunderground v.1.15,2014-01-30 20:05:00,
2014-01-30 14:07:00,63.6,40.1,29.85,South,191,8.0,17.0,42,0.00,,,0.00,Wunderground v.1.15,2014-01-30 20:07:00,
2014-01-30 14:08:00,63.6,40.1,29.84,SW,224,6.0,17.0,42,0.00,,,0.00,Wunderground v.1.15,2014-01-30 20:08:00,
2014-01-30 14:09:00,63.5,40.0,29.84,WSW,244,8.0,17.0,42,0.00,,,0.00,Wunderground v.1.15,2014-01-30 20:09:00,
2014-01-30 14:10:00,63.5,40.0,29.84,WNW,297,7.0,8.0,42,0.00,,,0.00,Wunderground v.1.15,2014-01-30 20:10:00,
2014-01-30 14:11:00,63.5,40.0,29.84,SSE,159,8.0,15.0,42,0.00,,,0.00,Wunderground v.1.15,2014-01-30 20:11:00,
2014-01-30 14:13:00,63.4,39.9,29.84,SW,223,7.0,23.0,42,0.00,,,0.00,Wunderground v.1.15,2014-01-30 20:13:00,
2014-01-30 14:14:00,63.2,39.7,29.84,SSW,202,7.0,23.0,42,0.00,,,0.00,Wunderground v.1.15,2014-01-30 20:14:00,
2014-01-30 14:15:00,63.1,39.6,29.84,WSW,247,6.0,23.0,42,0.00,,,0.00,Wunderground v.1.15,2014-01-30 20:15:00,
2014-01-30 14:16:00,63.1,40.2,29.84,SSE,161,7.0,23.0,43,0.00,,,0.00,Wunderground v.1.15,2014-01-30 20:16:00,
2014-01-30 14:18:00,63.3,40.4,29.84,WSW,251,8.0,23.0,43,0.00,,,0.00,Wunderground v.1.15,2014-01-30 20:18:00,
2014-01-30 14:19:00,63.4,40.5,29.84,NW,317,5.0,23.0,43,0.00,,,0.00,Wunderground v.1.15,2014-01-30 20:19:00,
2014-01-30 14:20:00,63.4,40.5,29.83,NW,319,9.0,9.0,43,0.00,,,0.00,Wunderground v.1.15,2014-01-30 20:20:00,
2014-01-30 14:21:00,63.5,40.0,29.84,WSW,238,11.0,16.0,42,0.00,,,0.00,Wunderground v.1.15,2014-01-30 20:21:00,
2014-01-30 14:23:00,63.5,40.0,29.84,West,270,6.0,16.0,42,0.00,,,0.00,Wunderground v.1.15,2014-01-30 20:23:00,
2014-01-30 14:24:00,63.4,39.9,29.84,SSW,204,11.0,16.0,42,0.00,,,0.00,Wunderground v.1.15,2014-01-30 20:24:00,
2014-01-30 14:25:00,63.4,40.5,29.84,WNW,296,8.0,16.0,43,0.00,,,0.00,Wunderground v.1.15,2014-01-30 20:25:00,
2014-01-30 14:26:00,63.4,39.9,29.83,NW,319,2.0,16.0,42,0.00,,,0.00,Wunderground v.1.15,2014-01-30 20:26:00,
2014-01-30 14:28:00,63.3,39.8,29.83,WSW,247,11.0,16.0,42,0.00,,,0.00,Wunderground v.1.15,2014-01-30 20:28:00,
2014-01-30 14:29:00,63.2,39.7,29.83,SSW,195,6.0,16.0,42,0.00,,,0.00,Wunderground v.1.15,2014-01-30 20:29:00,
2014-01-30 14:30:00,63.1,40.2,29.83,South,183,7.0,14.0,43,0.00,,,0.00,Wunderground v.1.15,2014-01-30 20:30:00,
2014-01-30 14:31:00,63.0,40.1,29.83,SSW,195,6.0,14.0,43,0.00,,,0.00,Wunderground v.1.15,2014-01-30 20:31:00,
2014-01-30 14:32:00,63.0,40.1,29.83,SSW,207,7.0,14.0,43,0.00,,,0.00,Wunderground v.1.15,2014-01-30 20:32:00,
2014-01-30 14:34:00,63.1,40.2,29.83,North,10,3.0,14.0,43,0.00,,,0.00,Wunderground v.1.15,2014-01-30 20:34:00,
2014-01-30 14:35:00,63.2,40.3,29.83,NW,316,10.0,14.0,43,0.00,,,0.00,Wunderground v.1.15,2014-01-30 20:35:00,
2014-01-30 14:36:00,63.2,40.3,29.83,WSW,242,7.0,14.0,43,0.00,,,0.00,Wunderground v.1.15,2014-01-30 20:36:00,
2014-01-30 14:37:00,63.3,40.4,29.83,WNW,285,5.0,14.0,43,0.00,,,0.00,Wunderground v.1.15,2014-01-30 20:37:00,
2014-01-30 14:39:00,63.5,40.6,29.83,WNW,289,3.0,14.0,43,0.00,,,0.00,Wunderground v.1.15,2014-01-30 20:39:00,
2014-01-30 14:40:00,63.5,40.0,29.83,SW,225,11.0,16.0,42,0.00,,,0.00,Wunderground v.1.15,2014-01-30 20:40:00,
2014-01-30 14:41:00,63.6,40.7,29.83,WSW,237,6.0,16.0,43,0.00,,,0.00,Wunderground v.1.15,2014-01-30 20:41:00,
2014-01-30 14:42:00,63.7,40.8,29.83,West,268,10.0,16.0,43,0.00,,,0.00,Wunderground v.1.15,2014-01-30 20:42:00,
2014-01-30 14:44:00,63.9,41.0,29.83,WSW,254,12.0,16.0,43,0.00,,,0.00,Wunderground v.1.15,2014-01-30 20:44:00,
2014-01-30 14:45:00,64.0,40.4,29.83,WNW,287,16.0,16.0,42,0.00,,,0.00,Wunderground v.1.15,2014-01-30 20:45:00,
2014-01-30 14:46:00,64.0,40.4,29.83,West,266,5.0,16.0,42,0.00,,,0.00,Wunderground v.1.15,2014-01-30 20:46:00,
2014-01-30 14:47:00,64.0,40.4,29.83,South,176,4.0,16.0,42,0.00,,,0.00,Wunderground v.1.15,2014-01-30 20:47:00,
2014-01-30 14:49:00,64.3,40.7,29.83,West,263,4.0,16.0,42,0.00,,,0.00,Wunderground v.1.15,2014-01-30 20:49:00,
2014-01-30 14:50:00,64.3,40.7,29.83,West,268,5.0,8.0,42,0.00,,,0.00,Wunderground v.1.15,2014-01-30 20:50:00,
2014-01-30 14:51:00,64.3,40.7,29.84,West,276,1.0,9.0,42,0.00,,,0.00,Wunderground v.1.15,2014-01-30 20:51:00,
2014-01-30 14:52:00,64.5,41.5,29.84,ESE,115,11.0,13.0,43,0.00,,,0.00,Wunderground v.1.15,2014-01-30 20:52:00,
2014-01-30 14:53:00,64.6,41.0,29.84,WSW,241,9.0,13.0,42,0.00,,,0.00,Wunderground v.1.15,2014-01-30 20:53:00,
2014-01-30 14:54:00,64.7,41.1,29.84,SW,223,7.0,15.0,42,0.00,,,0.00,Wunderground v.1.15,2014-01-30 20:54:00,
2014-01-30 14:55:00,64.7,41.1,29.84,West,276,9.0,15.0,42,0.00,,,0.00,Wunderground v.1.15,2014-01-30 20:55:00,
2014-01-30 14:56:00,64.8,41.2,29.84,West,269,17.0,17.0,42,0.00,,,0.00,Wunderground v.1.15,2014-01-30 20:56:00,
2014-01-30 14:57:00,64.7,40.4,29.84,SSW,196,13.0,17.0,41,0.00,,,0.00,Wunderground v.1.15,2014-01-30 20:57:00,
2014-01-30 14:58:00,64.7,40.4,29.84,WSW,247,12.0,17.0,41,0.00,,,0.00,Wunderground v.1.15,2014-01-30 20:58:00,
2014-01-30 14:59:00,64.6,40.4,29.83,WNW,284,7.0,8.0,41,0.00,,,0.00,Wunderground v.1.15,2014-01-30 20:59:00,
2014-01-30 15:01:00,64.5,40.3,29.83,WSW,237,3.0,12.0,41,0.00,,,0.00,Wunderground v.1.15,2014-01-30 21:01:00,
2014-01-30 15:02:00,64.5,40.3,29.83,WSW,237,3.0,12.0,41,0.00,,,0.00,Wunderground v.1.15,2014-01-30 21:02:00,
2014-01-30 15:03:00,64.5,40.3,29.84,WSW,237,3.0,12.0,41,0.00,,,0.00,Wunderground v.1.15,2014-01-30 21:03:00,
2014-01-30 15:06:00,64.5,40.3,29.84,WSW,237,3.0,12.0,41,0.00,,,0.00,Wunderground v.1.15,2014-01-30 21:06:00,
2014-01-30 15:08:00,64.5,40.3,29.83,WSW,237,3.0,12.0,41,0.00,,,0.00,Wunderground v.1.15,2014-01-30 21:08:00,
2014-01-30 15:09:00,65.3,41.0,29.83,West,270,8.0,13.0,41,0.00,,,0.00,Wunderground v.1.15,2014-01-30 21:09:00,
2014-01-30 15:11:00,65.4,41.1,29.83,WSW,258,5.0,15.0,41,0.00,,,0.00,Wunderground v.1.15,2014-01-30 21:11:00,
2014-01-30 15:12:00,65.4,41.1,29.83,West,263,7.0,15.0,41,0.00,,,0.00,Wunderground v.1.15,2014-01-30 21:12:00,
2014-01-30 15:13:00,65.4,41.1,29.83,WNW,301,6.0,15.0,41,0.00,,,0.00,Wunderground v.1.15,2014-01-30 21:13:00,
2014-01-30 15:14:00,65.3,41.0,29.83,WNW,297,5.0,15.0,41,0.00,,,0.00,Wunderground v.1.15,2014-01-30 21:14:00,
2014-01-30 15:16:00,65.2,40.9,29.83,West,265,19.0,19.0,41,0.00,,,0.00,Wunderground v.1.15,2014-01-30 21:16:00,
2014-01-30 15:17:00,65.1,40.8,29.83,WNW,299,7.0,19.0,41,0.00,,,0.00,Wunderground v.1.15,2014-01-30 21:17:00,
2014-01-30 15:18:00,65.1,40.8,29.83,WNW,297,13.0,19.0,41,0.00,,,0.00,Wunderground v.1.15,2014-01-30 21:18:00,
2014-01-30 15:19:00,65.1,41.4,29.83,WSW,254,4.0,19.0,42,0.00,,,0.00,Wunderground v.1.15,2014-01-30 21:19:00,
2014-01-30 15:20:00,65.1,41.4,29.83,SW,232,10.0,12.0,42,0.00,,,0.00,Wunderground v.1.15,2014-01-30 21:20:00,
2014-01-30 15:21:00,65.1,40.8,29.83,West,270,7.0,12.0,41,0.00,,,0.00,Wunderground v.1.15,2014-01-30 21:21:00,
2014-01-30 15:22:00,65.0,40.7,29.82,SW,234,5.0,15.0,41,0.00,,,0.00,Wunderground v.1.15,2014-01-30 21:22:00,
2014-01-30 15:23:00,64.9,40.6,29.82,WNW,285,10.0,15.0,41,0.00,,,0.00,Wunderground v.1.15,2014-01-30 21:23:00,
2014-01-30 15:24:00,64.9,40.6,29.82,West,280,7.0,15.0,41,0.00,,,0.00,Wunderground v.1.15,2014-01-30 21:24:00,
2014-01-30 15:25:00,64.8,41.2,29.82,West,273,6.0,15.0,42,0.00,,,0.00,Wunderground v.1.15,2014-01-30 21:25:00,
2014-01-30 15:26:00,64.9,41.2,29.82,WSW,254,9.0,15.0,42,0.00,,,0.00,Wunderground v.1.15,2014-01-30 21:26:00,
2014-01-30 15:27:00,65.0,41.3,29.82,WNW,282,6.0,15.0,42,0.00,,,0.00,Wunderground v.1.15,2014-01-30 21:27:00,
2014-01-30 15:28:00,65.1,41.4,29.82,WNW,282,7.0,15.0,42,0.00,,,0.00,Wunderground v.1.15,2014-01-30 21:28:00,
2014-01-30 15:29:00,65.2,41.5,29.81,SSE,167,8.0,15.0,42,0.00,,,0.00,Wunderground v.1.15,2014-01-30 21:29:00,
2014-01-30 15:31:00,65.3,41.0,29.81,West,270,4.0,18.0,41,0.00,,,0.00,Wunderground v.1.15,2014-01-30 21:31:00,
2014-01-30 15:32:00,65.4,41.7,29.81,WSW,254,7.0,18.0,42,0.00,,,0.00,Wunderground v.1.15,2014-01-30 21:32:00,
2014-01-30 15:33:00,65.5,41.2,29.81,West,261,7.0,18.0,41,0.00,,,0.00,Wunderground v.1.15,2014-01-30 21:33:00,
2014-01-30 15:34:00,65.6,41.3,29.81,SSE,147,17.0,18.0,41,0.00,,,0.00,Wunderground v.1.15,2014-01-30 21:34:00,
2014-01-30 15:35:00,65.6,41.3,29.81,WSW,256,8.0,18.0,41,0.00,,,0.00,Wunderground v.1.15,2014-01-30 21:35:00,
2014-01-30 15:37:00,65.5,41.2,29.81,South,172,7.0,18.0,41,0.00,,,0.00,Wunderground v.1.15,2014-01-30 21:37:00,
2014-01-30 15:38:00,65.4,41.1,29.81,SSW,209,5.0,18.0,41,0.00,,,0.00,Wunderground v.1.15,2014-01-30 21:38:00,
2014-01-30 15:39:00,65.4,41.1,29.81,South,187,10.0,18.0,41,0.00,,,0.00,Wunderground v.1.15,2014-01-30 21:39:00,
2014-01-30 15:40:00,65.3,41.0,29.81,WSW,248,17.0,17.0,41,0.00,,,0.00,Wunderground v.1.15,2014-01-30 21:40:00,
2014-01-30 15:42:00,65.1,41.4,29.81,South,181,3.0,17.0,42,0.00,,,0.00,Wunderground v.1.15,2014-01-30 21:42:00,
2014-01-30 15:43:00,65.0,41.3,29.81,WNW,285,2.0,17.0,42,0.00,,,0.00,Wunderground v.1.15,2014-01-30 21:43:00,
2014-01-30 15:44:00,64.9,41.2,29.81,SW,230,7.0,17.0,42,0.00,,,0.00,Wunderground v.1.15,2014-01-30 21:44:00,
2014-01-30 15:46:00,64.9,41.2,29.82,SSW,211,6.0,17.0,42,0.00,,,0.00,Wunderground v.1.15,2014-01-30 21:46:00,
2014-01-30 15:47:00,64.9,41.2,29.82,West,261,9.0,17.0,42,0.00,,,0.00,Wunderground v.1.15,2014-01-30 21:47:00,
2014-01-30 15:48:00,64.9,41.2,29.82,West,276,5.0,17.0,42,0.00,,,0.00,Wunderground v.1.15,2014-01-30 21:48:00,
2014-01-30 15:49:00,65.0,41.3,29.82,WSW,249,6.0,17.0,42,0.00,,,0.00,Wunderground v.1.15,2014-01-30 21:49:00,
2014-01-30 15:51:00,65.1,40.8,29.82,WSW,244,5.0,18.0,41,0.00,,,0.00,Wunderground v.1.15,2014-01-30 21:51:00,
2014-01-30 15:53:00,65.2,40.9,29.82,West,266,12.0,18.0,41,0.00,,,0.00,Wunderground v.1.15,2014-01-30 21:53:00,
2014-01-30 15:54:00,65.3,41.0,29.82,NW,325,8.0,18.0,41,0.00,,,0.00,Wunderground v.1.15,2014-01-30 21:54:00,
2014-01-30 15:56:00,65.5,41.8,29.82,South,177,3.0,18.0,42,0.00,,,0.00,Wunderground v.1.15,2014-01-30 21:56:00,
2014-01-30 15:58:00,65.7,41.3,29.82,WSW,241,7.0,18.0,41,0.00,,,0.00,Wunderground v.1.15,2014-01-30 21:58:00,
2014-01-30 15:59:00,65.8,41.4,29.82,South,185,6.0,7.0,41,0.00,,,0.00,Wunderground v.1.15,2014-01-30 21:59:00,
2014-01-30 16:00:00,65.8,41.4,29.82,WSW,254,5.0,9.0,41,0.00,,,0.00,Wunderground v.1.15,2014-01-30 22:00:00,
2014-01-30 16:03:00,65.7,41.3,29.82,WNW,282,5.0,9.0,41,0.00,,,0.00,Wunderground v.1.15,2014-01-30 22:03:00,
2014-01-30 16:04:00,65.7,41.3,29.82,WNW,282,5.0,9.0,41,0.00,,,0.00,Wunderground v.1.15,2014-01-30 22:04:00,
2014-01-30 16:05:00,65.7,41.3,29.82,WNW,282,5.0,9.0,41,0.00,,,0.00,Wunderground v.1.15,2014-01-30 22:05:00,
2014-01-30 16:08:00,65.8,42.1,29.82,WSW,238,2.0,12.0,42,0.00,,,0.00,Wunderground v.1.15,2014-01-30 22:08:00,
2014-01-30 16:09:00,65.8,42.1,29.82,West,274,3.0,12.0,42,0.00,,,0.00,Wunderground v.1.15,2014-01-30 22:09:00,
2014-01-30 16:10:00,65.8,42.1,29.82,WSW,247,5.0,5.0,42,0.00,,,0.00,Wunderground v.1.15,2014-01-30 22:10:00,
2014-01-30 16:13:00,65.7,41.3,29.82,West,265,12.0,17.0,41,0.00,,,0.00,Wunderground v.1.15,2014-01-30 22:13:00,
2014-01-30 16:14:00,65.6,41.3,29.82,West,259,10.0,17.0,41,0.00,,,0.00,Wunderground v.1.15,2014-01-30 22:14:00,
2014-01-30 16:15:00,65.5,41.2,29.82,SW,232,9.0,17.0,41,0.00,,,0.00,Wunderground v.1.15,2014-01-30 22:15:00,
2014-01-30 16:18:00,65.0,41.3,29.81,SW,218,3.0,17.0,42,0.00,,,0.00,Wunderground v.1.15,2014-01-30 22:18:00,
2014-01-30 16:19:00,65.0,41.3,29.81,NW,325,6.0,17.0,42,0.00,,,0.00,Wunderground v.1.15,2014-01-30 22:19:00,
2014-01-30 16:20:00,64.9,41.2,29.81,South,180,9.0,14.0,42,0.00,,,0.00,Wunderground v.1.15,2014-01-30 22:20:00,
2014-01-30 16:21:00,64.7,41.1,29.82,WSW,242,7.0,14.0,42,0.00,,,0.00,Wunderground v.1.15,2014-01-30 22:21:00,
2014-01-30 16:23:00,64.3,41.3,29.81,WSW,251,15.0,15.0,43,0.00,,,0.00,Wunderground v.1.15,2014-01-30 22:23:00,
2014-01-30 16:24:00,64.3,41.3,29.81,WNW,302,2.0,15.0,43,0.00,,,0.00,Wunderground v.1.15,2014-01-30 22:24:00,
2014-01-30 16:25:00,64.1,41.1,29.82,South,187,11.0,15.0,43,0.00,,,0.00,Wunderground v.1.15,2014-01-30 22:25:00,
2014-01-30 16:26:00,64.0,41.0,29.82,WSW,244,12.0,19.0,43,0.00,,,0.00,Wunderground v.1.15,2014-01-30 22:26:00,
2014-01-30 16:28:00,63.7,41.4,29.82,WSW,242,10.0,19.0,44,0.00,,,0.00,Wunderground v.1.15,2014-01-30 22:28:00,
2014-01-30 16:29:00,63.7,41.4,29.82,WNW,292,11.0,19.0,44,0.00,,,0.00,Wunderground v.1.15,2014-01-30 22:29:00,
2014-01-30 16:30:00,63.4,41.1,29.82,SSE,150,6.0,13.0,44,0.00,,,0.00,Wunderground v.1.15,2014-01-30 22:30:00,
2014-01-30 16:31:00,63.3,41.6,29.82,West,266,3.0,13.0,45,0.00,,,0.00,Wunderground v.1.15,2014-01-30 22:31:00,
2014-01-30 16:34:00,63.0,41.3,29.82,SW,225,12.0,13.0,45,0.00,,,0.00,Wunderground v.1.15,2014-01-30 22:34:00,
2014-01-30 16:35:00,62.9,41.2,29.82,WSW,240,15.0,15.0,45,0.00,,,0.00,Wunderground v.1.15,2014-01-30 22:35:00,
2014-01-30 16:36:00,62.8,41.7,29.82,SSW,192,8.0,15.0,46,0.00,,,0.00,Wunderground v.1.15,2014-01-30 22:36:00,
2014-01-30 16:39:00,62.7,41.6,29.82,West,270,4.0,15.0,46,0.00,,,0.00,Wunderground v.1.15,2014-01-30 22:39:00,
2014-01-30 16:40:00,62.8,41.7,29.82,SSW,204,11.0,12.0,46,0.00,,,0.00,Wunderground v.1.15,2014-01-30 22:40:00,
2014-01-30 16:41:00,62.8,41.7,29.82,ESE,122,9.0,12.0,46,0.00,,,0.00,Wunderground v.1.15,2014-01-30 22:41:00,
2014-01-30 16:42:00,62.8,41.7,29.82,SW,235,7.0,12.0,46,0.00,,,0.00,Wunderground v.1.15,2014-01-30 22:42:00,
2014-01-30 16:44:00,62.7,41.6,29.82,SE,140,9.0,13.0,46,0.00,,,0.00,Wunderground v.1.15,2014-01-30 22:44:00,
2014-01-30 16:45:00,62.7,41.6,29.82,WNW,283,10.0,21.0,46,0.00,,,0.00,Wunderground v.1.15,2014-01-30 22:45:00,
2014-01-30 16:46:00,62.6,41.5,29.82,SW,232,7.0,21.0,46,0.00,,,0.00,Wunderground v.1.15,2014-01-30 22:46:00,
2014-01-30 16:47:00,62.5,41.4,29.82,West,281,3.0,21.0,46,0.00,,,0.00,Wunderground v.1.15,2014-01-30 22:47:00,
2014-01-30 16:49:00,62.2,41.7,29.82,SW,235,5.0,21.0,47,0.00,,,0.00,Wunderground v.1.15,2014-01-30 22:49:00,
2014-01-30 16:50:00,62.1,41.6,29.82,South,184,4.0,7.0,47,0.00,,,0.00,Wunderground v.1.15,2014-01-30 22:50:00,
2014-01-30 16:51:00,62.0,41.5,29.82,WSW,256,12.0,17.0,47,0.00,,,0.00,Wunderground v.1.15,2014-01-30 22:51:00,
2014-01-30 16:52:00,61.8,41.3,29.82,SSE,167,7.0,17.0,47,0.00,,,0.00,Wunderground v.1.15,2014-01-30 22:52:00,
2014-01-30 16:54:00,61.5,41.6,29.82,NW,304,3.0,17.0,48,0.00,,,0.00,Wunderground v.1.15,2014-01-30 22:54:00,
2014-01-30 16:55:00,61.5,41.6,29.82,WSW,254,3.0,17.0,48,0.00,,,0.00,Wunderground v.1.15,2014-01-30 22:55:00,
2014-01-30 16:56:00,61.4,41.5,29.82,SW,227,4.0,17.0,48,0.00,,,0.00,Wunderground v.1.15,2014-01-30 22:56:00,
2014-01-30 16:57:00,61.4,41.5,29.82,WNW,284,1.0,17.0,48,0.00,,,0.00,Wunderground v.1.15,2014-01-30 22:57:00,
2014-01-30 16:59:00,61.3,41.4,29.83,WSW,245,7.0,17.0,48,0.00,,,0.00,Wunderground v.1.15,2014-01-30 22:59:00,
2014-01-30 17:00:00,61.4,41.5,29.83,South,183,6.0,11.0,48,0.00,,,0.00,Wunderground v.1.15,2014-01-30 23:00:00,
2014-01-30 17:02:00,61.4,41.5,29.82,WSW,254,6.0,11.0,48,0.00,,,0.00,Wunderground v.1.15,2014-01-30 23:02:00,
2014-01-30 17:03:00,61.4,41.5,29.83,WSW,254,6.0,11.0,48,0.00,,,0.00,Wunderground v.1.15,2014-01-30 23:03:00,
2014-01-30 17:04:00,61.4,41.5,29.83,WSW,244,11.0,13.0,48,0.00,,,0.00,Wunderground v.1.15,2014-01-30 23:04:00,
2014-01-30 17:05:00,61.4,41.5,29.83,WNW,286,4.0,13.0,48,0.00,,,0.00,Wunderground v.1.15,2014-01-30 23:05:00,
2014-01-30 17:07:00,61.3,41.4,29.83,SE,130,6.0,13.0,48,0.00,,,0.00,Wunderground v.1.15,2014-01-30 23:07:00,
2014-01-30 17:08:00,61.3,41.4,29.83,South,185,5.0,14.0,48,0.00,,,0.00,Wunderground v.1.15,2014-01-30 23:08:00,
2014-01-30 17:09:00,61.3,41.4,29.83,SW,227,7.0,14.0,48,0.00,,,0.00,Wunderground v.1.15,2014-01-30 23:09:00,
2014-01-30 17:10:00,61.3,41.4,29.83,WSW,237,8.0,8.0,48,0.00,,,0.00,Wunderground v.1.15,2014-01-30 23:10:00,
2014-01-30 17:13:00,61.4,41.5,29.82,SW,218,1.0,13.0,48,0.00,,,0.00,Wunderground v.1.15,2014-01-30 23:13:00,
2014-01-30 17:14:00,61.4,41.5,29.82,WSW,249,4.0,13.0,48,0.00,,,0.00,Wunderground v.1.15,2014-01-30 23:14:00,
2014-01-30 17:15:00,61.5,41.6,29.82,WSW,242,4.0,13.0,48,0.00,,,0.00,Wunderground v.1.15,2014-01-30 23:15:00,
2014-01-30 17:18:00,61.6,41.7,29.82,ENE,77,0.0,14.0,48,0.00,,,0.00,Wunderground v.1.15,2014-01-30 23:18:00,
2014-01-30 17:19:00,61.7,41.8,29.82,SW,214,5.0,14.0,48,0.00,,,0.00,Wunderground v.1.15,2014-01-30 23:19:00,
2014-01-30 17:20:00,61.7,41.8,29.82,WSW,258,4.0,5.0,48,0.00,,,0.00,Wunderground v.1.15,2014-01-30 23:20:00,
2014-01-30 17:23:00,61.9,42.0,29.82,NNW,336,2.0,8.0,48,0.00,,,0.00,Wunderground v.1.15,2014-01-30 23:23:00,
2014-01-30 17:24:00,61.9,42.0,29.82,NW,306,4.0,9.0,48,0.00,,,0.00,Wunderground v.1.15,2014-01-30 23:24:00,
2014-01-30 17:25:00,61.9,42.0,29.83,SW,214,8.0,9.0,48,0.00,,,0.00,Wunderground v.1.15,2014-01-30 23:25:00,
2014-01-30 17:28:00,61.9,42.0,29.82,West,263,5.0,9.0,48,0.00,,,0.00,Wunderground v.1.15,2014-01-30 23:28:00,
2014-01-30 17:29:00,62.0,42.1,29.82,SW,214,10.0,12.0,48,0.00,,,0.00,Wunderground v.1.15,2014-01-30 23:29:00,
2014-01-30 17:30:00,61.9,42.0,29.82,WSW,254,7.0,8.0,48,0.00,,,0.00,Wunderground v.1.15,2014-01-30 23:30:00,
2014-01-30 17:34:00,61.6,42.2,29.82,SSE,159,3.0,11.0,49,0.00,,,0.00,Wunderground v.1.15,2014-01-30 23:34:00,
2014-01-30 17:35:00,61.6,42.2,29.82,SW,221,5.0,11.0,49,0.00,,,0.00,Wunderground v.1.15,2014-01-30 23:35:00,
2014-01-30 17:39:00,61.1,41.8,29.82,WNW,289,7.0,15.0,49,0.00,,,0.00,Wunderground v.1.15,2014-01-30 23:39:00,
2014-01-30 17:40:00,60.9,41.6,29.82,West,263,2.0,9.0,49,0.00,,,0.00,Wunderground v.1.15,2014-01-30 23:40:00,
2014-01-30 17:44:00,60.3,41.6,29.82,SW,227,9.0,10.0,50,0.00,,,0.00,Wunderground v.1.15,2014-01-30 23:44:00,
2014-01-30 17:45:00,60.0,41.8,29.82,West,260,1.0,13.0,51,0.00,,,0.00,Wunderground v.1.15,2014-01-30 23:45:00,
2014-01-30 17:49:00,59.6,41.9,29.82,WNW,291,3.0,13.0,52,0.00,,,0.00,Wunderground v.1.15,2014-01-30 23:49:00,
2014-01-30 17:50:00,59.5,41.9,29.82,WNW,292,2.0,5.0,52,0.00,,,0.00,Wunderground v.1.15,2014-01-30 23:50:00,
2014-01-30 17:54:00,59.0,41.9,29.82,SW,228,5.0,10.0,53,0.00,,,0.00,Wunderground v.1.15,2014-01-30 23:54:00,
2014-01-30 17:55:00,59.0,41.9,29.82,SE,133,6.0,10.0,53,0.00,,,0.00,Wunderground v.1.15,2014-01-30 23:55:00,
2014-01-30 17:56:00,58.9,42.3,29.82,SW,224,4.0,10.0,54,0.00,,,0.00,Wunderground v.1.15,2014-01-30 23:56:00,
2014-01-30 17:59:00,58.5,41.9,29.82,West,265,1.0,10.0,54,0.00,,,0.00,Wunderground v.1.15,2014-01-30 23:59:00,
2014-01-30 18:00:00,58.4,42.3,29.82,WSW,254,3.0,6.0,55,0.00,,,0.00,Wunderground v.1.15,2014-01-31 00:00:00,
2014-01-30 18:02:00,58.4,42.3,29.82,WSW,251,4.0,6.0,55,0.00,,,0.00,Wunderground v.1.15,2014-01-31 00:02:00,
2014-01-30 18:04:00,58.4,42.3,29.83,WSW,251,4.0,6.0,55,0.00,,,0.00,Wunderground v.1.15,2014-01-31 00:04:00,
2014-01-30 18:05:00,57.9,42.3,29.83,South,189,6.0,6.0,56,0.00,,,0.00,Wunderground v.1.15,2014-01-31 00:05:00,
2014-01-30 18:07:00,57.7,42.1,29.83,WSW,258,1.0,9.0,56,0.00,,,0.00,Wunderground v.1.15,2014-01-31 00:07:00,
2014-01-30 18:08:00,57.7,42.1,29.82,SW,224,2.0,9.0,56,0.00,,,0.00,Wunderground v.1.15,2014-01-31 00:08:00,
2014-01-30 18:10:00,57.5,42.4,29.82,WSW,249,4.0,5.0,57,0.00,,,0.00,Wunderground v.1.15,2014-01-31 00:10:00,
2014-01-30 18:11:00,57.4,42.3,29.83,WNW,294,1.0,5.0,57,0.00,,,0.00,Wunderground v.1.15,2014-01-31 00:11:00,
2014-01-30 18:12:00,57.3,42.2,29.83,SSW,192,5.0,9.0,57,0.00,,,0.00,Wunderground v.1.15,2014-01-31 00:12:00,
2014-01-30 18:13:00,57.2,42.1,29.83,WSW,247,1.0,9.0,57,0.00,,,0.00,Wunderground v.1.15,2014-01-31 00:13:00,
2014-01-30 18:15:00,57.1,42.5,29.83,SW,228,6.0,9.0,58,0.00,,,0.00,Wunderground v.1.15,2014-01-31 00:15:00,
2014-01-30 18:16:00,57.0,42.4,29.83,NW,317,3.0,9.0,58,0.00,,,0.00,Wunderground v.1.15,2014-01-31 00:16:00,
2014-01-30 18:17:00,57.0,42.4,29.82,SW,217,2.0,9.0,58,0.00,,,0.00,Wunderground v.1.15,2014-01-31 00:17:00,
2014-01-30 18:18:00,56.9,42.3,29.82,SSW,199,5.0,9.0,58,0.00,,,0.00,Wunderground v.1.15,2014-01-31 00:18:00,
2014-01-30 18:20:00,56.8,42.2,29.83,West,267,2.0,4.0,58,0.00,,,0.00,Wunderground v.1.15,2014-01-31 00:20:00,
2014-01-30 18:22:00,56.6,42.0,29.83,SW,228,4.0,6.0,58,0.00,,,0.00,Wunderground v.1.15,2014-01-31 00:22:00,
2014-01-30 18:23:00,56.6,42.0,29.83,WSW,258,2.0,9.0,58,0.00,,,0.00,Wunderground v.1.15,2014-01-31 00:23:00,
2014-01-30 18:25:00,56.5,42.3,29.83,West,259,4.0,9.0,59,0.00,,,0.00,Wunderground v.1.15,2014-01-31 00:25:00,
2014-01-30 18:28:00,56.3,42.1,29.84,WSW,258,3.0,9.0,59,0.00,,,0.00,Wunderground v.1.15,2014-01-31 00:28:00,
2014-01-30 18:29:00,56.3,42.1,29.84,WNW,294,0.0,9.0,59,0.00,,,0.00,Wunderground v.1.15,2014-01-31 00:29:00,
2014-01-30 18:30:00,56.2,42.1,29.84,SW,216,4.0,6.0,59,0.00,,,0.00,Wunderground v.1.15,2014-01-31 00:30:00,
2014-01-30 18:33:00,56.1,42.0,29.84,SW,221,7.0,7.0,59,0.00,,,0.00,Wunderground v.1.15,2014-01-31 00:33:00,
2014-01-30 18:34:00,56.1,42.0,29.84,West,266,1.0,7.0,59,0.00,,,0.00,Wunderground v.1.15,2014-01-31 00:34:00,
2014-01-30 18:35:00,56.1,42.0,29.84,SW,235,3.0,7.0,59,0.00,,,0.00,Wunderground v.1.15,2014-01-31 00:35:00,
2014-01-30 18:36:00,56.0,41.9,29.84,WSW,247,3.0,8.0,59,0.00,,,0.00,Wunderground v.1.15,2014-01-31 00:36:00,
2014-01-30 18:38:00,55.9,42.2,29.84,SW,227,1.0,8.0,60,0.00,,,0.00,Wunderground v.1.15,2014-01-31 00:38:00,
2014-01-30 18:39:00,55.9,42.2,29.84,SE,133,6.0,8.0,60,0.00,,,0.00,Wunderground v.1.15,2014-01-31 00:39:00,
2014-01-30 18:40:00,55.8,42.1,29.84,SW,218,4.0,4.0,60,0.00,,,0.00,Wunderground v.1.15,2014-01-31 00:40:00,
2014-01-30 18:41:00,55.8,42.1,29.84,WSW,241,4.0,8.0,60,0.00,,,0.00,Wunderground v.1.15,2014-01-31 00:41:00,
2014-01-30 18:43:00,55.7,42.0,29.84,SW,217,5.0,8.0,60,0.00,,,0.00,Wunderground v.1.15,2014-01-31 00:43:00,
2014-01-30 18:44:00,55.6,41.9,29.84,WSW,237,5.0,8.0,60,0.00,,,0.00,Wunderground v.1.15,2014-01-31 00:44:00,
2014-01-30 18:45:00,55.5,41.8,29.84,WSW,248,2.0,8.0,60,0.00,,,0.00,Wunderground v.1.15,2014-01-31 00:45:00,
2014-01-30 18:46:00,55.5,41.8,29.84,WSW,247,2.0,8.0,60,0.00,,,0.00,Wunderground v.1.15,2014-01-31 00:46:00,
2014-01-30 18:48:00,55.3,42.1,29.84,SW,234,2.0,8.0,61,0.00,,,0.00,Wunderground v.1.15,2014-01-31 00:48:00,
2014-01-30 18:50:00,55.2,42.0,29.84,WSW,237,3.0,3.0,61,0.00,,,0.00,Wunderground v.1.15,2014-01-31 00:50:00,
2014-01-30 18:51:00,55.1,41.9,29.84,West,275,1.0,3.0,61,0.00,,,0.00,Wunderground v.1.15,2014-01-31 00:51:00,
2014-01-30 18:53:00,55.0,41.8,29.84,WSW,254,0.0,9.0,61,0.00,,,0.00,Wunderground v.1.15,2014-01-31 00:53:00,
2014-01-30 18:54:00,55.0,41.8,29.84,West,265,7.0,9.0,61,0.00,,,0.00,Wunderground v.1.15,2014-01-31 00:54:00,
2014-01-30 18:55:00,54.9,42.1,29.84,West,273,3.0,9.0,62,0.00,,,0.00,Wunderground v.1.15,2014-01-31 00:55:00,
2014-01-30 18:56:00,54.9,42.1,29.84,WSW,249,2.0,9.0,62,0.00,,,0.00,Wunderground v.1.15,2014-01-31 00:56:00,
2014-01-30 18:57:00,54.9,42.1,29.84,SW,214,3.0,9.0,62,0.00,,,0.00,Wunderground v.1.15,2014-01-31 00:57:00,
2014-01-30 18:58:00,54.7,41.9,29.84,WSW,251,5.0,9.0,62,0.00,,,0.00,Wunderground v.1.15,2014-01-31 00:58:00,
2014-01-30 19:00:00,54.7,41.9,29.84,SSW,195,7.0,8.0,62,0.00,,,0.00,Wunderground v.1.15,2014-01-31 01:00:00,
2014-01-30 19:02:00,54.7,41.9,29.84,West,259,2.0,8.0,62,0.00,,,0.00,Wunderground v.1.15,2014-01-31 01:02:00,
2014-01-30 19:03:00,54.7,41.9,29.83,South,179,6.0,8.0,62,0.00,,,0.00,Wunderground v.1.15,2014-01-31 01:03:00,
2014-01-30 19:05:00,54.6,41.8,29.84,SW,232,7.0,10.0,62,0.00,,,0.00,Wunderground v.1.15,2014-01-31 01:05:00,
2014-01-30 19:07:00,54.6,42.3,29.84,SSW,197,5.0,10.0,63,0.00,,,0.00,Wunderground v.1.15,2014-01-31 01:07:00,
2014-01-30 19:08:00,54.6,42.3,29.84,WSW,256,1.0,10.0,63,0.00,,,0.00,Wunderground v.1.15,2014-01-31 01:08:00,
2014-01-30 19:10:00,54.6,42.3,29.84,NW,306,1.0,8.0,63,0.00,,,0.00,Wunderground v.1.15,2014-01-31 01:10:00,
2014-01-30 19:12:00,54.5,42.2,29.84,WSW,248,3.0,8.0,63,0.00,,,0.00,Wunderground v.1.15,2014-01-31 01:12:00,
2014-01-30 19:13:00,54.5,42.2,29.84,SSW,209,4.0,8.0,63,0.00,,,0.00,Wunderground v.1.15,2014-01-31 01:13:00,
2014-01-30 19:15:00,54.5,42.2,29.84,SW,227,5.0,8.0,63,0.00,,,0.00,Wunderground v.1.15,2014-01-31 01:15:00,
2014-01-30 19:17:00,54.5,42.2,29.84,West,263,5.0,9.0,63,0.00,,,0.00,Wunderground v.1.15,2014-01-31 01:17:00,
2014-01-30 19:18:00,54.6,42.3,29.84,WSW,244,3.0,9.0,63,0.00,,,0.00,Wunderground v.1.15,2014-01-31 01:18:00,
2014-01-30 19:19:00,54.6,42.3,29.84,South,178,5.0,9.0,63,0.00,,,0.00,Wunderground v.1.15,2014-01-31 01:19:00,
2014-01-30 19:20:00,54.6,42.3,29.84,WNW,282,3.0,6.0,63,0.00,,,0.00,Wunderground v.1.15,2014-01-31 01:20:00,
2014-01-30 19:22:00,54.5,42.2,29.84,SSE,158,4.0,8.0,63,0.00,,,0.00,Wunderground v.1.15,2014-01-31 01:22:00,
2014-01-30 19:23:00,54.5,42.2,29.84,SW,224,8.0,8.0,63,0.00,,,0.00,Wunderground v.1.15,2014-01-31 01:23:00,
2014-01-30 19:24:00,54.5,42.2,29.84,WSW,240,5.0,8.0,63,0.00,,,0.00,Wunderground v.1.15,2014-01-31 01:24:00,
2014-01-30 19:25:00,54.5,42.2,29.84,WSW,256,2.0,8.0,63,0.00,,,0.00,Wunderground v.1.15,2014-01-31 01:25:00,
2014-01-30 19:27:00,54.5,42.2,29.84,WSW,251,2.0,8.0,63,0.00,,,0.00,Wunderground v.1.15,2014-01-31 01:27:00,
2014-01-30 19:28:00,54.5,42.2,29.84,SSW,207,2.0,8.0,63,0.00,,,0.00,Wunderground v.1.15,2014-01-31 01:28:00,
2014-01-30 19:29:00,54.4,42.1,29.84,SSE,150,7.0,8.0,63,0.00,,,0.00,Wunderground v.1.15,2014-01-31 01:29:00,
2014-01-30 19:30:00,54.4,42.5,29.84,SW,232,3.0,7.0,64,0.00,,,0.00,Wunderground v.1.15,2014-01-31 01:30:00,
2014-01-30 19:33:00,54.3,42.4,29.84,WSW,240,2.0,7.0,64,0.00,,,0.00,Wunderground v.1.15,2014-01-31 01:33:00,
2014-01-30 19:34:00,54.3,42.4,29.85,SW,218,4.0,7.0,64,0.00,,,0.00,Wunderground v.1.15,2014-01-31 01:34:00,
2014-01-30 19:35:00,54.3,42.4,29.85,South,181,4.0,7.0,64,0.00,,,0.00,Wunderground v.1.15,2014-01-31 01:35:00,
2014-01-30 19:36:00,54.2,42.3,29.84,South,182,4.0,7.0,64,0.00,,,0.00,Wunderground v.1.15,2014-01-31 01:36:00,
2014-01-30 19:38:00,54.1,42.2,29.84,SW,214,4.0,7.0,64,0.00,,,0.00,Wunderground v.1.15,2014-01-31 01:38:00,
2014-01-30 19:39:00,54.0,42.1,29.84,SSW,204,5.0,7.0,64,0.00,,,0.00,Wunderground v.1.15,2014-01-31 01:39:00,
2014-01-30 19:40:00,53.9,42.0,29.84,SW,230,4.0,5.0,64,0.00,,,0.00,Wunderground v.1.15,2014-01-31 01:40:00,
2014-01-30 19:41:00,53.9,42.0,29.84,South,175,4.0,7.0,64,0.00,,,0.00,Wunderground v.1.15,2014-01-31 01:41:00,
2014-01-30 19:43:00,53.7,41.8,29.84,SW,214,5.0,7.0,64,0.00,,,0.00,Wunderground v.1.15,2014-01-31 01:43:00,
2014-01-30 19:44:00,53.7,41.8,29.84,SSW,204,4.0,7.0,64,0.00,,,0.00,Wunderground v.1.15,2014-01-31 01:44:00,
2014-01-30 19:45:00,53.6,42.1,29.84,WSW,254,1.0,7.0,65,0.00,,,0.00,Wunderground v.1.15,2014-01-31 01:45:00,
2014-01-30 19:46:00,53.5,42.0,29.85,West,268,0.0,7.0,65,0.00,,,0.00,Wunderground v.1.15,2014-01-31 01:46:00,
2014-01-30 19:48:00,53.4,41.9,29.84,SW,214,3.0,7.0,65,0.00,,,0.00,Wunderground v.1.15,2014-01-31 01:48:00,
2014-01-30 19:49:00,53.4,41.9,29.84,SW,218,2.0,7.0,65,0.00,,,0.00,Wunderground v.1.15,2014-01-31 01:49:00,
2014-01-30 19:50:00,53.3,41.8,29.84,WNW,292,2.0,3.0,65,0.00,,,0.00,Wunderground v.1.15,2014-01-31 01:50:00,
2014-01-30 19:51:00,53.3,42.2,29.84,SSW,199,8.0,9.0,66,0.00,,,0.00,Wunderground v.1.15,2014-01-31 01:51:00,
2014-01-30 19:53:00,53.2,42.1,29.84,WSW,237,3.0,9.0,66,0.00,,,0.00,Wunderground v.1.15,2014-01-31 01:53:00,
2014-01-30 19:54:00,53.2,42.1,29.84,WSW,251,3.0,11.0,66,0.00,,,0.00,Wunderground v.1.15,2014-01-31 01:54:00,
2014-01-30 19:55:00,53.2,42.1,29.84,SSE,168,3.0,11.0,66,0.00,,,0.00,Wunderground v.1.15,2014-01-31 01:55:00,
2014-01-30 19:56:00,53.2,42.1,29.84,SSW,200,4.0,11.0,66,0.00,,,0.00,Wunderground v.1.15,2014-01-31 01:56:00,
2014-01-30 19:59:00,53.2,42.5,29.84,South,187,4.0,13.0,67,0.00,,,0.00,Wunderground v.1.15,2014-01-31 01:59:00,
2014-01-30 20:00:00,53.2,42.5,29.84,SSW,204,6.0,11.0,67,0.00,,,0.00,Wunderground v.1.15,2014-01-31 02:00:00,
2014-01-30 20:01:00,53.2,42.5,29.85,SSW,209,4.0,11.0,67,0.00,,,0.00,Wunderground v.1.15,2014-01-31 02:01:00,
2014-01-30 20:05:00,53.1,42.4,29.85,SSW,197,5.0,11.0,67,0.00,,,0.00,Wunderground v.1.15,2014-01-31 02:05:00,
2014-01-30 20:06:00,53.1,42.4,29.85,SW,232,3.0,11.0,67,0.00,,,0.00,Wunderground v.1.15,2014-01-31 02:06:00,
2014-01-30 20:07:00,53.1,42.4,29.85,SW,221,2.0,11.0,67,0.00,,,0.00,Wunderground v.1.15,2014-01-31 02:07:00,
2014-01-30 20:10:00,53.0,42.3,29.85,SW,232,3.0,4.0,67,0.00,,,0.00,Wunderground v.1.15,2014-01-31 02:10:00,
2014-01-30 20:11:00,53.0,42.7,29.85,SW,228,6.0,8.0,68,0.00,,,0.00,Wunderground v.1.15,2014-01-31 02:11:00,
2014-01-30 20:12:00,53.0,42.7,29.85,SSW,202,4.0,8.0,68,0.00,,,0.00,Wunderground v.1.15,2014-01-31 02:12:00,
2014-01-30 20:15:00,52.9,42.6,29.85,SW,220,6.0,11.0,68,0.00,,,0.00,Wunderground v.1.15,2014-01-31 02:15:00,
2014-01-30 20:16:00,52.8,42.5,29.85,SW,227,8.0,11.0,68,0.00,,,0.00,Wunderground v.1.15,2014-01-31 02:16:00,
2014-01-30 20:17:00,52.8,42.5,29.85,South,175,6.0,11.0,68,0.00,,,0.00,Wunderground v.1.15,2014-01-31 02:17:00,
2014-01-30 20:20:00,52.9,42.6,29.84,West,261,6.0,11.0,68,0.00,,,0.00,Wunderground v.1.15,2014-01-31 02:20:00,
2014-01-30 20:22:00,52.9,42.6,29.84,WSW,256,1.0,12.0,68,0.00,,,0.00,Wunderground v.1.15,2014-01-31 02:22:00,
2014-01-30 20:26:00,52.9,42.6,29.84,WSW,242,8.0,12.0,68,0.00,,,0.00,Wunderground v.1.15,2014-01-31 02:26:00,
2014-01-30 20:27:00,52.9,42.6,29.84,WSW,245,3.0,12.0,68,0.00,,,0.00,Wunderground v.1.15,2014-01-31 02:27:00,
2014-01-30 20:28:00,52.9,42.6,29.85,SSE,168,7.0,12.0,68,0.00,,,0.00,Wunderground v.1.15,2014-01-31 02:28:00,
2014-01-30 20:31:00,52.8,42.5,29.84,South,169,8.0,9.0,68,0.00,,,0.00,Wunderground v.1.15,2014-01-31 02:31:00,
2014-01-30 20:32:00,52.8,42.5,29.84,SW,230,1.0,9.0,68,0.00,,,0.00,Wunderground v.1.15,2014-01-31 02:32:00,
2014-01-30 20:33:00,52.8,42.5,29.85,WSW,255,4.0,9.0,68,0.00,,,0.00,Wunderground v.1.15,2014-01-31 02:33:00,
2014-01-30 20:36:00,52.8,42.5,29.84,SW,223,6.0,12.0,68,0.00,,,0.00,Wunderground v.1.15,2014-01-31 02:36:00,
2014-01-30 20:37:00,52.9,43.0,29.84,South,187,8.0,12.0,69,0.00,,,0.00,Wunderground v.1.15,2014-01-31 02:37:00,
2014-01-30 20:38:00,52.9,43.0,29.84,SW,227,7.0,12.0,69,0.00,,,0.00,Wunderground v.1.15,2014-01-31 02:38:00,
2014-01-30 20:42:00,53.0,42.7,29.84,SW,234,6.0,11.0,68,0.00,,,0.00,Wunderground v.1.15,2014-01-31 02:42:00,
2014-01-30 20:43:00,53.0,42.7,29.84,WSW,258,7.0,11.0,68,0.00,,,0.00,Wunderground v.1.15,2014-01-31 02:43:00,
2014-01-30 20:47:00,53.0,42.7,29.84,WSW,244,4.0,11.0,68,0.00,,,0.00,Wunderground v.1.15,2014-01-31 02:47:00,
2014-01-30 20:48:00,53.0,42.7,29.84,West,265,2.0,11.0,68,0.00,,,0.00,Wunderground v.1.15,2014-01-31 02:48:00,
2014-01-30 20:49:00,53.0,42.7,29.84,SW,221,5.0,11.0,68,0.00,,,0.00,Wunderground v.1.15,2014-01-31 02:49:00,
2014-01-30 20:52:00,53.0,42.7,29.84,SW,232,3.0,12.0,68,0.00,,,0.00,Wunderground v.1.15,2014-01-31 02:52:00,
2014-01-30 20:53:00,53.0,42.7,29.84,WSW,251,5.0,12.0,68,0.00,,,0.00,Wunderground v.1.15,2014-01-31 02:53:00,
2014-01-30 20:54:00,52.9,42.6,29.84,South,176,9.0,12.0,68,0.00,,,0.00,Wunderground v.1.15,2014-01-31 02:54:00,
2014-01-30 20:55:00,53.0,42.7,29.84,WSW,251,4.0,12.0,68,0.00,,,0.00,Wunderground v.1.15,2014-01-31 02:55:00,
2014-01-30 20:58:00,53.0,42.7,29.84,SW,227,3.0,12.0,68,0.00,,,0.00,Wunderground v.1.15,2014-01-31 02:58:00,
2014-01-30 20:59:00,52.9,42.6,29.84,West,262,3.0,12.0,68,0.00,,,0.00,Wunderground v.1.15,2014-01-31 02:59:00,
2014-01-30 21:02:00,53.0,42.7,29.84,SW,228,2.0,8.0,68,0.00,,,0.00,Wunderground v.1.15,2014-01-31 03:02:00,
2014-01-30 21:03:00,53.0,42.7,29.84,SW,228,2.0,8.0,68,0.00,,,0.00,Wunderground v.1.15,2014-01-31 03:03:00,
2014-01-30 21:04:00,53.0,42.7,29.84,SW,228,2.0,8.0,68,0.00,,,0.00,Wunderground v.1.15,2014-01-31 03:04:00,
2014-01-30 21:08:00,53.0,42.7,29.84,West,277,8.0,11.0,68,0.00,,,0.00,Wunderground v.1.15,2014-01-31 03:08:00,
2014-01-30 21:09:00,53.0,42.7,29.84,West,261,5.0,5.0,68,0.00,,,0.00,Wunderground v.1.15,2014-01-31 03:09:00,
2014-01-30 21:10:00,53.0,42.7,29.84,South,170,4.0,5.0,68,0.00,,,0.00,Wunderground v.1.15,2014-01-31 03:10:00,
2014-01-30 21:13:00,53.1,42.8,29.85,SSW,199,8.0,11.0,68,0.00,,,0.00,Wunderground v.1.15,2014-01-31 03:13:00,
2014-01-30 21:14:00,53.1,42.8,29.85,West,276,3.0,11.0,68,0.00,,,0.00,Wunderground v.1.15,2014-01-31 03:14:00,
2014-01-30 21:15:00,53.1,42.8,29.85,West,277,3.0,14.0,68,0.00,,,0.00,Wunderground v.1.15,2014-01-31 03:15:00,
2014-01-30 21:19:00,53.2,42.9,29.84,SW,234,6.0,14.0,68,0.00,,,0.00,Wunderground v.1.15,2014-01-31 03:19:00,
2014-01-30 21:20:00,53.2,42.9,29.84,SSE,147,8.0,8.0,68,0.00,,,0.00,Wunderground v.1.15,2014-01-31 03:20:00,
2014-01-30 21:24:00,53.3,42.6,29.84,SW,227,5.0,12.0,67,0.00,,,0.00,Wunderground v.1.15,2014-01-31 03:24:00,
2014-01-30 21:25:00,53.3,42.6,29.84,South,191,10.0,12.0,67,0.00,,,0.00,Wunderground v.1.15,2014-01-31 03:25:00,
2014-01-30 21:26:00,53.3,42.6,29.84,South,186,3.0,12.0,67,0.00,,,0.00,Wunderground v.1.15,2014-01-31 03:26:00,
2014-01-30 21:29:00,53.3,42.6,29.83,SSE,167,4.0,12.0,67,0.00,,,0.00,Wunderground v.1.15,2014-01-31 03:29:00,
2014-01-30 21:30:00,53.3,42.6,29.84,West,279,0.0,5.0,67,0.00,,,0.00,Wunderground v.1.15,2014-01-31 03:30:00,
2014-01-30 21:31:00,53.3,42.6,29.84,South,178,6.0,6.0,67,0.00,,,0.00,Wunderground v.1.15,2014-01-31 03:31:00,
2014-01-30 21:34:00,53.3,42.6,29.84,WSW,240,3.0,10.0,67,0.00,,,0.00,Wunderground v.1.15,2014-01-31 03:34:00,
2014-01-30 21:35:00,53.4,42.7,29.84,SW,235,0.0,10.0,67,0.00,,,0.00,Wunderground v.1.15,2014-01-31 03:35:00,
2014-01-30 21:36:00,53.3,42.6,29.84,WNW,282,4.0,10.0,67,0.00,,,0.00,Wunderground v.1.15,2014-01-31 03:36:00,
2014-01-30 21:39:00,53.3,42.6,29.84,WSW,254,5.0,10.0,67,0.00,,,0.00,Wunderground v.1.15,2014-01-31 03:39:00,
2014-01-30 21:40:00,53.3,42.6,29.84,WSW,238,7.0,8.0,67,0.00,,,0.00,Wunderground v.1.15,2014-01-31 03:40:00,
2014-01-30 21:41:00,53.3,42.6,29.84,SSW,197,7.0,8.0,67,0.00,,,0.00,Wunderground v.1.15,2014-01-31 03:41:00,
2014-01-30 21:42:00,53.3,42.6,29.84,SW,214,1.0,8.0,67,0.00,,,0.00,Wunderground v.1.15,2014-01-31 03:42:00,
2014-01-30 21:45:00,53.3,42.6,29.84,WSW,255,3.0,9.0,67,0.00,,,0.00,Wunderground v.1.15,2014-01-31 03:45:00,
2014-01-30 21:46:00,53.3,42.6,29.84,West,275,3.0,9.0,67,0.00,,,0.00,Wunderground v.1.15,2014-01-31 03:46:00,
2014-01-30 21:47:00,53.3,42.6,29.84,West,265,3.0,9.0,67,0.00,,,0.00,Wunderground v.1.15,2014-01-31 03:47:00,
2014-01-30 21:50:00,53.3,42.6,29.84,West,265,6.0,6.0,67,0.00,,,0.00,Wunderground v.1.15,2014-01-31 03:50:00,
2014-01-30 21:51:00,53.3,42.6,29.84,NW,306,3.0,6.0,67,0.00,,,0.00,Wunderground v.1.15,2014-01-31 03:51:00,
2014-01-30 21:52:00,53.3,42.6,29.84,South,174,4.0,6.0,67,0.00,,,0.00,Wunderground v.1.15,2014-01-31 03:52:00,
2014-01-30 21:55:00,53.3,42.6,29.84,South,180,4.0,7.0,67,0.00,,,0.00,Wunderground v.1.15,2014-01-31 03:55:00,
2014-01-30 21:56:00,53.3,42.6,29.84,WSW,240,3.0,7.0,67,0.00,,,0.00,Wunderground v.1.15,2014-01-31 03:56:00,
2014-01-30 21:57:00,53.3,42.6,29.84,SW,230,6.0,7.0,67,0.00,,,0.00,Wunderground v.1.15,2014-01-31 03:57:00,
2014-01-30 22:01:00,53.3,42.6,29.84,South,172,5.0,7.0,67,0.00,,,0.00,Wunderground v.1.15,2014-01-31 04:01:00,
2014-01-30 22:02:00,53.3,42.6,29.84,South,172,5.0,7.0,67,0.00,,,0.00,Wunderground v.1.15,2014-01-31 04:02:00,
2014-01-30 22:03:00,53.3,42.6,29.84,South,172,5.0,7.0,67,0.00,,,0.00,Wunderground v.1.15,2014-01-31 04:03:00,
2014-01-30 22:06:00,53.3,42.6,29.84,SSW,199,4.0,9.0,67,0.00,,,0.00,Wunderground v.1.15,2014-01-31 04:06:00,
2014-01-30 22:07:00,53.3,42.6,29.84,WNW,296,3.0,9.0,67,0.00,,,0.00,Wunderground v.1.15,2014-01-31 04:07:00,
2014-01-30 22:08:00,53.3,42.6,29.84,West,273,0.0,9.0,67,0.00,,,0.00,Wunderground v.1.15,2014-01-31 04:08:00,
2014-01-30 22:12:00,53.4,42.7,29.84,West,272,4.0,12.0,67,0.00,,,0.00,Wunderground v.1.15,2014-01-31 04:12:00,
2014-01-30 22:13:00,53.3,42.6,29.84,South,174,4.0,12.0,67,0.00,,,0.00,Wunderground v.1.15,2014-01-31 04:13:00,
2014-01-30 22:14:00,53.3,42.6,29.84,North,349,4.0,12.0,67,0.00,,,0.00,Wunderground v.1.15,2014-01-31 04:14:00,
2014-01-30 22:17:00,53.3,43.0,29.84,West,266,3.0,12.0,68,0.00,,,0.00,Wunderground v.1.15,2014-01-31 04:17:00,
2014-01-30 22:18:00,53.3,43.0,29.84,SW,225,5.0,12.0,68,0.00,,,0.00,Wunderground v.1.15,2014-01-31 04:18:00,
2014-01-30 22:19:00,53.3,43.0,29.84,SSW,209,2.0,12.0,68,0.00,,,0.00,Wunderground v.1.15,2014-01-31 04:19:00,
2014-01-30 22:20:00,53.2,42.9,29.83,SE,124,3.0,4.0,68,0.00,,,0.00,Wunderground v.1.15,2014-01-31 04:20:00,
2014-01-30 22:22:00,53.2,42.9,29.84,NW,310,1.0,8.0,68,0.00,,,0.00,Wunderground v.1.15,2014-01-31 04:22:00,
2014-01-30 22:23:00,53.2,42.9,29.83,South,181,4.0,9.0,68,0.00,,,0.00,Wunderground v.1.15,2014-01-31 04:23:00,
2014-01-30 22:24:00,53.1,42.8,29.83,SW,223,8.0,9.0,68,0.00,,,0.00,Wunderground v.1.15,2014-01-31 04:24:00,
2014-01-30 22:25:00,53.1,42.8,29.83,WSW,244,5.0,9.0,68,0.00,,,0.00,Wunderground v.1.15,2014-01-31 04:25:00,
2014-01-30 22:27:00,53.1,42.8,29.83,WNW,285,0.0,9.0,68,0.00,,,0.00,Wunderground v.1.15,2014-01-31 04:27:00,
2014-01-30 22:28:00,53.0,42.7,29.84,West,261,4.0,9.0,68,0.00,,,0.00,Wunderground v.1.15,2014-01-31 04:28:00,
2014-01-30 22:29:00,53.0,42.7,29.83,SW,235,6.0,9.0,68,0.00,,,0.00,Wunderground v.1.15,2014-01-31 04:29:00,
2014-01-30 22:30:00,53.0,42.7,29.84,SSW,204,3.0,7.0,68,0.00,,,0.00,Wunderground v.1.15,2014-01-31 04:30:00,
2014-01-30 22:32:00,53.0,42.7,29.83,West,261,1.0,8.0,68,0.00,,,0.00,Wunderground v.1.15,2014-01-31 04:32:00,
2014-01-30 22:33:00,53.0,42.7,29.83,South,182,3.0,8.0,68,0.00,,,0.00,Wunderground v.1.15,2014-01-31 04:33:00,
2014-01-30 22:34:00,52.9,42.6,29.83,SW,235,4.0,8.0,68,0.00,,,0.00,Wunderground v.1.15,2014-01-31 04:34:00,
2014-01-30 22:36:00,52.9,42.6,29.83,WSW,258,1.0,10.0,68,0.00,,,0.00,Wunderground v.1.15,2014-01-31 04:36:00,
2014-01-30 22:37:00,52.9,42.6,29.83,West,270,5.0,10.0,68,0.00,,,0.00,Wunderground v.1.15,2014-01-31 04:37:00,
2014-01-30 22:38:00,52.8,42.5,29.83,SW,218,6.0,10.0,68,0.00,,,0.00,Wunderground v.1.15,2014-01-31 04:38:00,
2014-01-30 22:39:00,52.8,42.9,29.83,West,262,2.0,10.0,69,0.00,,,0.00,Wunderground v.1.15,2014-01-31 04:39:00,
2014-01-30 22:41:00,52.8,42.9,29.83,SE,146,6.0,10.0,69,0.00,,,0.00,Wunderground v.1.15,2014-01-31 04:41:00,
2014-01-30 22:42:00,52.7,42.8,29.83,WSW,256,2.0,10.0,69,0.00,,,0.00,Wunderground v.1.15,2014-01-31 04:42:00,
2014-01-30 22:43:00,52.7,42.8,29.83,WSW,248,6.0,10.0,69,0.00,,,0.00,Wunderground v.1.15,2014-01-31 04:43:00,
2014-01-30 22:44:00,52.7,42.8,29.83,West,280,1.0,10.0,69,0.00,,,0.00,Wunderground v.1.15,2014-01-31 04:44:00,
2014-01-30 22:46:00,52.7,42.8,29.83,SSW,206,3.0,12.0,69,0.00,,,0.00,Wunderground v.1.15,2014-01-31 04:46:00,
2014-01-30 22:47:00,52.8,42.9,29.83,SSE,154,3.0,12.0,69,0.00,,,0.00,Wunderground v.1.15,2014-01-31 04:47:00,
2014-01-30 22:48:00,52.8,42.9,29.83,SW,227,4.0,12.0,69,0.00,,,0.00,Wunderground v.1.15,2014-01-31 04:48:00,
2014-01-30 22:49:00,52.7,42.8,29.83,West,261,3.0,12.0,69,0.00,,,0.00,Wunderground v.1.15,2014-01-31 04:49:00,
2014-01-30 22:50:00,52.7,42.8,29.83,SW,230,3.0,5.0,69,0.00,,,0.00,Wunderground v.1.15,2014-01-31 04:50:00,
2014-01-30 22:52:00,52.7,42.8,29.83,South,169,2.0,9.0,69,0.00,,,0.00,Wunderground v.1.15,2014-01-31 04:52:00,
2014-01-30 22:53:00,52.7,42.8,29.83,SW,232,6.0,9.0,69,0.00,,,0.00,Wunderground v.1.15,2014-01-31 04:53:00,
2014-01-30 22:54:00,52.6,42.7,29.83,West,262,4.0,9.0,69,0.00,,,0.00,Wunderground v.1.15,2014-01-31 04:54:00,
2014-01-30 22:55:00,52.6,42.7,29.83,WSW,240,5.0,9.0,69,0.00,,,0.00,Wunderground v.1.15,2014-01-31 04:55:00,
2014-01-30 22:57:00,52.5,42.6,29.83,WSW,237,4.0,10.0,69,0.00,,,0.00,Wunderground v.1.15,2014-01-31 04:57:00,
2014-01-30 22:58:00,52.5,42.6,29.82,West,270,10.0,10.0,69,0.00,,,0.00,Wunderground v.1.15,2014-01-31 04:58:00,
2014-01-30 22:59:00,52.5,42.6,29.82,WSW,251,5.0,10.0,69,0.00,,,0.00,Wunderground v.1.15,2014-01-31 04:59:00,
2014-01-30 23:00:00,52.5,42.6,29.82,WSW,249,4.0,6.0,69,0.00,,,0.00,Wunderground v.1.15,2014-01-31 05:00:00,
2014-01-30 23:02:00,52.5,42.6,29.83,WNW,296,6.0,6.0,69,0.00,,,0.00,Wunderground v.1.15,2014-01-31 05:02:00,
2014-01-30 23:07:00,52.4,42.9,29.83,SSW,209,4.0,8.0,70,0.00,,,0.00,Wunderground v.1.15,2014-01-31 05:07:00,
2014-01-30 23:08:00,52.4,42.9,29.83,WSW,247,2.0,8.0,70,0.00,,,0.00,Wunderground v.1.15,2014-01-31 05:08:00,
2014-01-30 23:12:00,52.2,42.7,29.83,WNW,297,4.0,9.0,70,0.00,,,0.00,Wunderground v.1.15,2014-01-31 05:12:00,
2014-01-30 23:13:00,52.2,42.7,29.83,West,261,1.0,9.0,70,0.00,,,0.00,Wunderground v.1.15,2014-01-31 05:13:00,
2014-01-30 23:16:00,52.2,42.7,29.83,West,269,4.0,11.0,70,0.00,,,0.00,Wunderground v.1.15,2014-01-31 05:16:00,
2014-01-30 23:17:00,52.3,42.8,29.83,South,190,3.0,11.0,70,0.00,,,0.00,Wunderground v.1.15,2014-01-31 05:17:00,
2014-01-30 23:18:00,52.2,42.7,29.83,SW,235,5.0,11.0,70,0.00,,,0.00,Wunderground v.1.15,2014-01-31 05:18:00,
2014-01-30 23:21:00,52.2,42.7,29.83,WNW,290,2.0,7.0,70,0.00,,,0.00,Wunderground v.1.15,2014-01-31 05:21:00,
2014-01-30 23:23:00,52.2,42.7,29.83,WNW,292,6.0,7.0,70,0.00,,,0.00,Wunderground v.1.15,2014-01-31 05:23:00,
2014-01-30 23:26:00,52.1,42.6,29.83,South,183,8.0,8.0,70,0.00,,,0.00,Wunderground v.1.15,2014-01-31 05:26:00,
2014-01-30 23:28:00,52.0,42.9,29.83,WSW,248,1.0,8.0,71,0.00,,,0.00,Wunderground v.1.15,2014-01-31 05:28:00,
2014-01-30 23:29:00,52.0,42.9,29.83,SSW,206,4.0,8.0,71,0.00,,,0.00,Wunderground v.1.15,2014-01-31 05:29:00,
2014-01-30 23:31:00,51.9,42.8,29.83,SW,221,8.0,8.0,71,0.00,,,0.00,Wunderground v.1.15,2014-01-31 05:31:00,
2014-01-30 23:33:00,51.9,42.8,29.83,SSW,202,3.0,9.0,71,0.00,,,0.00,Wunderground v.1.15,2014-01-31 05:33:00,
2014-01-30 23:34:00,51.9,42.8,29.83,WSW,237,4.0,9.0,71,0.00,,,0.00,Wunderground v.1.15,2014-01-31 05:34:00,
2014-01-30 23:37:00,51.9,42.8,29.83,SE,141,6.0,9.0,71,0.00,,,0.00,Wunderground v.1.15,2014-01-31 05:37:00,
2014-01-30 23:38:00,51.9,42.8,29.84,West,262,4.0,9.0,71,0.00,,,0.00,Wunderground v.1.15,2014-01-31 05:38:00,
2014-01-30 23:39:00,51.8,42.7,29.84,WSW,258,2.0,9.0,71,0.00,,,0.00,Wunderground v.1.15,2014-01-31 05:39:00,
2014-01-30 23:40:00,51.8,42.7,29.84,SSW,203,6.0,6.0,71,0.00,,,0.00,Wunderground v.1.15,2014-01-31 05:40:00,
2014-01-30 23:42:00,51.7,42.6,29.84,South,177,4.0,9.0,71,0.00,,,0.00,Wunderground v.1.15,2014-01-31 05:42:00,
2014-01-30 23:43:00,51.7,42.6,29.84,SW,231,3.0,9.0,71,0.00,,,0.00,Wunderground v.1.15,2014-01-31 05:43:00,
2014-01-30 23:44:00,51.7,42.6,29.84,SW,228,5.0,9.0,71,0.00,,,0.00,Wunderground v.1.15,2014-01-31 05:44:00,
2014-01-30 23:45:00,51.6,42.9,29.84,West,263,4.0,9.0,72,0.00,,,0.00,Wunderground v.1.15,2014-01-31 05:45:00,
2014-01-30 23:47:00,51.5,42.8,29.84,SSE,166,5.0,9.0,72,0.00,,,0.00,Wunderground v.1.15,2014-01-31 05:47:00,
2014-01-30 23:49:00,51.4,42.7,29.84,West,268,0.0,9.0,72,0.00,,,0.00,Wunderground v.1.15,2014-01-31 05:49:00,
2014-01-30 23:50:00,51.3,42.6,29.84,WSW,244,4.0,4.0,72,0.00,,,0.00,Wunderground v.1.15,2014-01-31 05:50:00,
2014-01-30 23:52:00,51.3,42.9,29.84,SSW,195,6.0,7.0,73,0.00,,,0.00,Wunderground v.1.15,2014-01-31 05:52:00,
2014-01-30 23:54:00,51.2,42.8,29.84,WSW,256,4.0,7.0,73,0.00,,,0.00,Wunderground v.1.15,2014-01-31 05:54:00,
2014-01-30 23:55:00,51.2,42.8,29.83,SW,230,2.0,7.0,73,0.00,,,0.00,Wunderground v.1.15,2014-01-31 05:55:00,
2014-01-30 23:56:00,51.2,42.8,29.83,WSW,256,2.0,7.0,73,0.00,,,0.00,Wunderground v.1.15,2014-01-31 05:56:00,
2014-01-30 23:57:00,51.1,42.7,29.83,West,261,2.0,7.0,73,0.00,,,0.00,Wunderground v.1.15,2014-01-31 05:57:00,
2014-01-30 23:59:00,51.1,42.7,29.83,South,171,7.0,7.0,73,0.00,,,0.00,Wunderground v.1.15,2014-01-31 05:59:00,